Darstellungsparameter: Aktuell verwendete Einstellungen:
Skalierung der Graphiken ... ?
xyx+y,   Skalierungsfaktor:      Skalierung: Modus: x, Faktor: 1
Darstellungszeitraum ... ?
Vom - - bis: - -   Zeitraum: 22.11.2020 - 26.11.2020
Min/Max/Avg-Anzeige ... ?
Zeige MMA aktuell
Zeige MMA Monat
Zeige MMA alles
Zeige --A aktuell
Zeige --A Monat
Zeige --A alles
Keine MMA-Anzeige
MMA:
Average (ber die Originaldaten)
MMA-Basis: 23.02.2003 - 29.09.2020
Quicknavigation für Darstellung... ?
Tage:      1T, 2T, 3T, 5T -1T -2T -3T -5T +1T +2T +3T +5T
Wochen: 1W, 2W, 3W -1W -2W -3W +1W +2W +3W
Monate: 1M, 3M, 6M -1M -3M -6M +1M +3M +6M
Jahre:    1J, 3J, 5J, 10J -1J -3J -5J -10J +1J +3J +5J +10J
Nutze für die Darstellung ... ?
Originaldaten oder Mittelwerte auf ...
Stundenbasis Tagesbasis Wochenbasis
Monatsbasis Jahresbasis      Datenbasis: Original-Daten
Darstellen als:
Statistik (Auto) Statistik J:M      Darstellung:
Zur Graphik,    zurück zur Übersicht aller Sensoren.
 
Tabellarische Datenbersicht: ?
 
Sensor: Nr:Datum:Temp:Abs-Feuchte:Windchill:Wind:
Aussen-T/F 1 22-11-2020 00:00:00 5.7 C 6.05 g/m*3 2.69 C 14.5 km/h
2 22-11-2020 00:05:00 5.7 C 6.05 g/m*3 2.95 C 12.9 km/h
3 22-11-2020 00:10:00 5.8 C 6.09 g/m*3 3.36 C 11.3 km/h
4 22-11-2020 00:15:00 5.8 C 6.09 g/m*3 3.07 C 12.9 km/h
5 22-11-2020 00:20:00 5.8 C 6.09 g/m*3 2.81 C 14.5 km/h
6 22-11-2020 00:25:00 5.8 C 6.09 g/m*3 3.68 C 9.7 km/h
7 22-11-2020 00:30:00 5.8 C 6.09 g/m*3 2.58 C 16.1 km/h
8 22-11-2020 00:35:00 5.8 C 6.09 g/m*3 2.58 C 16.1 km/h
9 22-11-2020 00:40:00 5.8 C 6.09 g/m*3 3.07 C 12.9 km/h
10 22-11-2020 00:45:00 5.8 C 6.09 g/m*3 4.05 C 8.1 km/h
11 22-11-2020 00:50:00 5.8 C 6.09 g/m*3 2.81 C 14.5 km/h
12 22-11-2020 00:55:00 5.8 C 6.09 g/m*3 2.81 C 14.5 km/h
13 22-11-2020 01:00:00 5.8 C 6.09 g/m*3 3.07 C 12.9 km/h
14 22-11-2020 01:05:00 5.8 C 6.09 g/m*3 3.36 C 11.3 km/h
15 22-11-2020 01:10:00 5.8 C 6.09 g/m*3 3.07 C 12.9 km/h
16 22-11-2020 01:15:00 5.9 C 6.13 g/m*3 3.48 C 11.3 km/h
17 22-11-2020 01:20:00 5.9 C 6.13 g/m*3 3.19 C 12.9 km/h
18 22-11-2020 01:25:00 5.9 C 6.13 g/m*3 3.19 C 12.9 km/h
19 22-11-2020 01:30:00 6 C 6.17 g/m*3 3.6 C 11.3 km/h
20 22-11-2020 01:35:00 6.1 C 6.21 g/m*3 3.43 C 12.9 km/h
21 22-11-2020 01:40:00 6.1 C 6.21 g/m*3 4.4 C 8.1 km/h
22 22-11-2020 01:45:00 6.1 C 6.21 g/m*3 4.04 C 9.7 km/h
23 22-11-2020 01:50:00 6.2 C 6.25 g/m*3 3.56 C 12.9 km/h
24 22-11-2020 01:55:00 6.2 C 6.18 g/m*3 3.84 C 11.3 km/h
25 22-11-2020 02:00:00 6.3 C 6.22 g/m*3 3.96 C 11.3 km/h
Sensor: Nr:Datum:Temp:Abs-Feuchte:Windchill:Wind:
Aussen-T/F 26 22-11-2020 02:05:00 6.3 C 6.22 g/m*3 4.27 C 9.7 km/h
27 22-11-2020 02:10:00 6.3 C 6.22 g/m*3 3.96 C 11.3 km/h
28 22-11-2020 02:15:00 6.3 C 6.22 g/m*3 3.96 C 11.3 km/h
29 22-11-2020 02:20:00 6.3 C 6.22 g/m*3 4.27 C 9.7 km/h
30 22-11-2020 02:25:00 6.3 C 6.22 g/m*3 3.68 C 12.9 km/h
31 22-11-2020 02:30:00 6.3 C 6.22 g/m*3 4.64 C 8.1 km/h
32 22-11-2020 02:35:00 6.3 C 6.22 g/m*3 3.96 C 11.3 km/h
33 22-11-2020 02:40:00 6.3 C 6.22 g/m*3 3.43 C 14.5 km/h
34 22-11-2020 02:45:00 6.3 C 6.22 g/m*3 3.68 C 12.9 km/h
35 22-11-2020 02:50:00 6.3 C 6.22 g/m*3 3.68 C 12.9 km/h
36 22-11-2020 02:55:00 6.3 C 6.22 g/m*3 3.96 C 11.3 km/h
37 22-11-2020 03:00:00 6.3 C 6.22 g/m*3 3.96 C 11.3 km/h
38 22-11-2020 03:05:00 6.3 C 6.22 g/m*3 3.43 C 14.5 km/h
39 22-11-2020 03:10:00 6.3 C 6.22 g/m*3 4.27 C 9.7 km/h
40 22-11-2020 03:15:00 6.3 C 6.22 g/m*3 3.68 C 12.9 km/h
41 22-11-2020 03:20:00 6.3 C 6.22 g/m*3 3.43 C 14.5 km/h
42 22-11-2020 03:25:00 6.3 C 6.22 g/m*3 3.96 C 11.3 km/h
43 22-11-2020 03:30:00 6.3 C 6.14 g/m*3 3.68 C 12.9 km/h
44 22-11-2020 03:35:00 6.3 C 6.22 g/m*3 4.64 C 8.1 km/h
45 22-11-2020 03:40:00 6.3 C 6.22 g/m*3 3.96 C 11.3 km/h
46 22-11-2020 03:45:00 6.3 C 6.22 g/m*3 3.43 C 14.5 km/h
47 22-11-2020 03:50:00 6.3 C 6.22 g/m*3 3.43 C 14.5 km/h
48 22-11-2020 03:55:00 6.4 C 6.26 g/m*3 3.55 C 14.5 km/h
49 22-11-2020 04:00:00 6.4 C 6.26 g/m*3 3.32 C 16.1 km/h
50 22-11-2020 04:05:00 6.4 C 6.18 g/m*3 3.8 C 12.9 km/h
Sensor: Nr:Datum:Temp:Abs-Feuchte:Windchill:Wind:
Aussen-T/F 51 22-11-2020 04:10:00 6.4 C 6.18 g/m*3 3.11 C 17.7 km/h
52 22-11-2020 04:15:00 6.5 C 6.22 g/m*3 3.44 C 16.1 km/h
53 22-11-2020 04:20:00 6.6 C 6.27 g/m*3 3.17 C 19.3 km/h
54 22-11-2020 04:25:00 6.6 C 6.27 g/m*3 3.17 C 19.3 km/h
55 22-11-2020 04:30:00 6.6 C 6.27 g/m*3 3.79 C 14.5 km/h
56 22-11-2020 04:35:00 6.6 C 6.27 g/m*3 4.04 C 12.9 km/h
57 22-11-2020 04:40:00 6.6 C 6.27 g/m*3 3.36 C 17.7 km/h
58 22-11-2020 04:45:00 6.6 C 6.27 g/m*3 3.57 C 16.1 km/h
59 22-11-2020 04:50:00 6.4 C 6.18 g/m*3 3.55 C 14.5 km/h
60 22-11-2020 04:55:00 6.4 C 6.18 g/m*3 3.55 C 14.5 km/h
61 22-11-2020 05:00:00 6.4 C 6.26 g/m*3 3.32 C 16.1 km/h
62 22-11-2020 05:05:00 6.4 C 6.26 g/m*3 3.8 C 12.9 km/h
63 22-11-2020 05:10:00 6.5 C 6.3 g/m*3 3.67 C 14.5 km/h
64 22-11-2020 05:15:00 6.6 C 6.34 g/m*3 3.79 C 14.5 km/h
65 22-11-2020 05:20:00 6.6 C 6.27 g/m*3 3.57 C 16.1 km/h
66 22-11-2020 05:25:00 6.6 C 6.34 g/m*3 4.04 C 12.9 km/h
67 22-11-2020 05:30:00 6.6 C 6.27 g/m*3 3.57 C 16.1 km/h
68 22-11-2020 05:35:00 6.7 C 6.31 g/m*3 3.92 C 14.5 km/h
69 22-11-2020 05:40:00 6.7 C 6.31 g/m*3 4.17 C 12.9 km/h
70 22-11-2020 05:45:00 6.7 C 6.31 g/m*3 3.92 C 14.5 km/h
71 22-11-2020 05:50:00 6.7 C 6.31 g/m*3 4.17 C 12.9 km/h
72 22-11-2020 05:55:00 6.7 C 6.31 g/m*3 4.44 C 11.3 km/h
73 22-11-2020 06:00:00 6.7 C 6.38 g/m*3 3.69 C 16.1 km/h
74 22-11-2020 06:05:00 6.7 C 6.38 g/m*3 4.75 C 9.7 km/h
75 22-11-2020 06:10:00 6.8 C 6.35 g/m*3 4.04 C 14.5 km/h
Sensor: Nr:Datum:Temp:Abs-Feuchte:Windchill:Wind:
Aussen-T/F 76 22-11-2020 06:15:00 6.8 C 6.42 g/m*3 4.87 C 9.7 km/h
77 22-11-2020 06:20:00 6.8 C 6.42 g/m*3 4.56 C 11.3 km/h
78 22-11-2020 06:25:00 6.7 C 6.38 g/m*3 4.44 C 11.3 km/h
79 22-11-2020 06:30:00 6.8 C 6.42 g/m*3 4.29 C 12.9 km/h
80 22-11-2020 06:35:00 6.8 C 6.42 g/m*3 3.82 C 16.1 km/h
81 22-11-2020 06:40:00 6.8 C 6.42 g/m*3 3.82 C 16.1 km/h
82 22-11-2020 06:45:00 6.9 C 6.47 g/m*3 4.68 C 11.3 km/h
83 22-11-2020 06:50:00 6.9 C 6.39 g/m*3 4.16 C 14.5 km/h
84 22-11-2020 06:55:00 7 C 6.43 g/m*3 3.49 C 20.9 km/h
85 22-11-2020 07:00:00 6.9 C 6.39 g/m*3 4.16 C 14.5 km/h
86 22-11-2020 07:05:00 6.9 C 6.39 g/m*3 3.73 C 17.7 km/h
87 22-11-2020 07:10:00 6.9 C 6.39 g/m*3 4.41 C 12.9 km/h
88 22-11-2020 07:15:00 6.9 C 6.47 g/m*3 4.41 C 12.9 km/h
89 22-11-2020 07:20:00 6.9 C 6.47 g/m*3 4.41 C 12.9 km/h
90 22-11-2020 07:25:00 6.9 C 6.47 g/m*3 3.94 C 16.1 km/h
91 22-11-2020 07:30:00 6.9 C 6.47 g/m*3 4.16 C 14.5 km/h
92 22-11-2020 07:35:00 6.9 C 6.47 g/m*3 4.16 C 14.5 km/h
93 22-11-2020 07:40:00 6.9 C 6.47 g/m*3 3.94 C 16.1 km/h
94 22-11-2020 07:45:00 6.9 C 6.47 g/m*3 4.41 C 12.9 km/h
95 22-11-2020 07:50:00 6.8 C 6.42 g/m*3 4.04 C 14.5 km/h
96 22-11-2020 07:55:00 6.8 C 6.42 g/m*3 4.87 C 9.7 km/h
97 22-11-2020 08:00:00 6.8 C 6.42 g/m*3 4.56 C 11.3 km/h
98 22-11-2020 08:05:00 6.8 C 6.42 g/m*3 4.56 C 11.3 km/h
99 22-11-2020 08:10:00 6.8 C 6.5 g/m*3 4.87 C 9.7 km/h
100 22-11-2020 08:15:00 6.8 C 6.5 g/m*3 4.04 C 14.5 km/h
Sensor: Nr:Datum:Temp:Abs-Feuchte:Windchill:Wind:
Aussen-T/F 101 22-11-2020 08:20:00 6.9 C 6.54 g/m*3 3.54 C 19.3 km/h
102 22-11-2020 08:25:00 6.9 C 6.47 g/m*3 3.94 C 16.1 km/h
103 22-11-2020 08:30:00 6.9 C 6.47 g/m*3 4.16 C 14.5 km/h
104 22-11-2020 08:35:00 6.9 C 6.54 g/m*3 4.41 C 12.9 km/h
105 22-11-2020 08:40:00 6.9 C 6.54 g/m*3 4.16 C 14.5 km/h
106 22-11-2020 08:45:00 6.9 C 6.54 g/m*3 4.16 C 14.5 km/h
107 22-11-2020 08:50:00 6.9 C 6.54 g/m*3 3.73 C 17.7 km/h
108 22-11-2020 08:55:00 7 C 6.59 g/m*3 4.06 C 16.1 km/h
109 22-11-2020 09:00:00 7.1 C 6.63 g/m*3 3.98 C 17.7 km/h
110 22-11-2020 09:05:00 7.1 C 6.63 g/m*3 3.98 C 17.7 km/h
111 22-11-2020 09:10:00 7.1 C 6.63 g/m*3 4.41 C 14.5 km/h
112 22-11-2020 09:15:00 7.2 C 6.67 g/m*3 4.31 C 16.1 km/h
113 22-11-2020 09:20:00 7.2 C 6.67 g/m*3 4.53 C 14.5 km/h
114 22-11-2020 09:25:00 7.3 C 6.72 g/m*3 4.23 C 17.7 km/h
115 22-11-2020 09:30:00 7.3 C 6.72 g/m*3 5.16 C 11.3 km/h
116 22-11-2020 09:35:00 7.4 C 6.76 g/m*3 5.28 C 11.3 km/h
117 22-11-2020 09:40:00 7.4 C 6.76 g/m*3 5.58 C 9.7 km/h
118 22-11-2020 09:45:00 7.4 C 6.76 g/m*3 5.28 C 11.3 km/h
119 22-11-2020 09:50:00 7.4 C 6.76 g/m*3 5.02 C 12.9 km/h
120 22-11-2020 09:55:00 7.4 C 6.76 g/m*3 5.28 C 11.3 km/h
121 22-11-2020 10:00:00 7.4 C 6.76 g/m*3 4.78 C 14.5 km/h
122 22-11-2020 10:05:00 7.5 C 6.8 g/m*3 4.9 C 14.5 km/h
123 22-11-2020 10:10:00 7.6 C 6.85 g/m*3 5.26 C 12.9 km/h
124 22-11-2020 10:15:00 7.6 C 6.85 g/m*3 5.26 C 12.9 km/h
125 22-11-2020 10:20:00 7.6 C 6.85 g/m*3 5.02 C 14.5 km/h
Sensor: Nr:Datum:Temp:Abs-Feuchte:Windchill:Wind:
Aussen-T/F 126 22-11-2020 10:25:00 7.6 C 6.77 g/m*3 4.42 C 19.3 km/h
127 22-11-2020 10:30:00 7.6 C 6.77 g/m*3 4.81 C 16.1 km/h
128 22-11-2020 10:35:00 7.6 C 6.77 g/m*3 4.42 C 19.3 km/h
129 22-11-2020 10:40:00 7.6 C 6.77 g/m*3 4.81 C 16.1 km/h
130 22-11-2020 10:45:00 7.7 C 6.81 g/m*3 4.93 C 16.1 km/h
131 22-11-2020 10:50:00 7.8 C 6.86 g/m*3 4.86 C 17.7 km/h
132 22-11-2020 10:55:00 7.9 C 6.9 g/m*3 4.63 C 20.9 km/h
133 22-11-2020 11:00:00 7.9 C 6.9 g/m*3 4.63 C 20.9 km/h
134 22-11-2020 11:05:00 8 C 6.94 g/m*3 6.01 C 11.3 km/h
135 22-11-2020 11:10:00 8.1 C 6.99 g/m*3 5.64 C 14.5 km/h
136 22-11-2020 11:15:00 8.1 C 6.99 g/m*3 6.42 C 9.7 km/h
137 22-11-2020 11:20:00 8.1 C 6.99 g/m*3 5.23 C 17.7 km/h
138 22-11-2020 11:25:00 8 C 6.94 g/m*3 5.52 C 14.5 km/h
139 22-11-2020 11:30:00 8.1 C 6.99 g/m*3 5.64 C 14.5 km/h
140 22-11-2020 11:35:00 8.1 C 6.99 g/m*3 6.42 C 9.7 km/h
141 22-11-2020 11:40:00 8.1 C 6.99 g/m*3 5.23 C 17.7 km/h
142 22-11-2020 11:45:00 8.2 C 7.03 g/m*3 5.99 C 12.9 km/h
143 22-11-2020 11:50:00 8.2 C 7.03 g/m*3 5.55 C 16.1 km/h
144 22-11-2020 11:55:00 8.3 C 7 g/m*3 6.66 C 9.7 km/h
145 22-11-2020 12:00:00 8.3 C 7 g/m*3 5.68 C 16.1 km/h
146 22-11-2020 12:05:00 8.3 C 7.08 g/m*3 6.12 C 12.9 km/h
147 22-11-2020 12:10:00 8.3 C 7 g/m*3 5.89 C 14.5 km/h
148 22-11-2020 12:15:00 8.3 C 7 g/m*3 6.12 C 12.9 km/h
149 22-11-2020 12:20:00 8.3 C 7.08 g/m*3 6.12 C 12.9 km/h
150 22-11-2020 12:25:00 8.4 C 7.13 g/m*3 5.8 C 16.1 km/h
Sensor: Nr:Datum:Temp:Abs-Feuchte:Windchill:Wind:
Aussen-T/F 151 22-11-2020 12:30:00 8.5 C 7.09 g/m*3 5.73 C 17.7 km/h
152 22-11-2020 12:35:00 8.5 C 7.09 g/m*3 5.73 C 17.7 km/h
153 22-11-2020 12:40:00 8.5 C 7.17 g/m*3 6.13 C 14.5 km/h
154 22-11-2020 12:45:00 8.6 C 7.13 g/m*3 7.34 C 8.1 km/h
155 22-11-2020 12:50:00 8.7 C 7.18 g/m*3 6.38 C 14.5 km/h
156 22-11-2020 12:55:00 8.7 C 7.18 g/m*3 6.6 C 12.9 km/h
157 22-11-2020 13:00:00 8.7 C 7.18 g/m*3 6.85 C 11.3 km/h
158 22-11-2020 13:05:00 8.7 C 7.18 g/m*3 6.17 C 16.1 km/h
159 22-11-2020 13:10:00 8.7 C 7.18 g/m*3 6.6 C 12.9 km/h
160 22-11-2020 13:15:00 8.8 C 7.22 g/m*3 6.3 C 16.1 km/h
161 22-11-2020 13:20:00 8.8 C 7.22 g/m*3 6.72 C 12.9 km/h
162 22-11-2020 13:25:00 8.8 C 7.22 g/m*3 6.72 C 12.9 km/h
163 22-11-2020 13:30:00 8.8 C 7.22 g/m*3 6.72 C 12.9 km/h
164 22-11-2020 13:35:00 8.8 C 7.22 g/m*3 6.3 C 16.1 km/h
165 22-11-2020 13:40:00 8.8 C 7.22 g/m*3 6.72 C 12.9 km/h
166 22-11-2020 13:45:00 8.8 C 7.22 g/m*3 6.3 C 16.1 km/h
167 22-11-2020 13:50:00 8.8 C 7.22 g/m*3 6.72 C 12.9 km/h
168 22-11-2020 13:55:00 8.9 C 7.27 g/m*3 7.09 C 11.3 km/h
169 22-11-2020 14:00:00 8.9 C 7.27 g/m*3 6.42 C 16.1 km/h
170 22-11-2020 14:05:00 8.9 C 7.27 g/m*3 7.09 C 11.3 km/h
171 22-11-2020 14:10:00 8.9 C 7.27 g/m*3 7.09 C 11.3 km/h
172 22-11-2020 14:15:00 8.9 C 7.27 g/m*3 7.69 C 8.1 km/h
173 22-11-2020 14:20:00 8.9 C 7.27 g/m*3 7.37 C 9.7 km/h
174 22-11-2020 14:25:00 8.9 C 7.27 g/m*3 7.09 C 11.3 km/h
175 22-11-2020 14:30:00 8.9 C 7.27 g/m*3 7.69 C 8.1 km/h
Sensor: Nr:Datum:Temp:Abs-Feuchte:Windchill:Wind:
Aussen-T/F 176 22-11-2020 14:35:00 9 C 7.32 g/m*3 9 C 4.8 km/h
177 22-11-2020 14:40:00 9.1 C 7.36 g/m*3 7.09 C 12.9 km/h
178 22-11-2020 14:45:00 9 C 7.32 g/m*3 6.75 C 14.5 km/h
179 22-11-2020 14:50:00 9 C 7.32 g/m*3 7.49 C 9.7 km/h
180 22-11-2020 14:55:00 9 C 7.32 g/m*3 7.21 C 11.3 km/h
181 22-11-2020 15:00:00 9 C 7.32 g/m*3 8.21 C 6.4 km/h
182 22-11-2020 15:05:00 9 C 7.32 g/m*3 7.81 C 8.1 km/h
183 22-11-2020 15:10:00 9 C 7.32 g/m*3 7.21 C 11.3 km/h
184 22-11-2020 15:15:00 9 C 7.32 g/m*3 6.97 C 12.9 km/h
185 22-11-2020 15:20:00 9 C 7.32 g/m*3 7.21 C 11.3 km/h
186 22-11-2020 15:25:00 9 C 7.32 g/m*3 6.54 C 16.1 km/h
187 22-11-2020 15:30:00 9 C 7.32 g/m*3 7.21 C 11.3 km/h
188 22-11-2020 15:35:00 9 C 7.32 g/m*3 6.75 C 14.5 km/h
189 22-11-2020 15:40:00 9 C 7.32 g/m*3 6.97 C 12.9 km/h
190 22-11-2020 15:45:00 8.9 C 7.27 g/m*3 6.85 C 12.9 km/h
191 22-11-2020 15:50:00 8.9 C 7.36 g/m*3 6.42 C 16.1 km/h
192 22-11-2020 15:55:00 8.9 C 7.36 g/m*3 6.85 C 12.9 km/h
193 22-11-2020 16:00:00 8.9 C 7.36 g/m*3 7.09 C 11.3 km/h
194 22-11-2020 16:05:00 8.9 C 7.36 g/m*3 7.69 C 8.1 km/h
195 22-11-2020 16:10:00 8.9 C 7.36 g/m*3 7.09 C 11.3 km/h
196 22-11-2020 16:15:00 8.9 C 7.36 g/m*3 7.69 C 8.1 km/h
197 22-11-2020 16:20:00 8.9 C 7.45 g/m*3 8.9 C 4.8 km/h
198 22-11-2020 16:25:00 8.9 C 7.36 g/m*3 7.69 C 8.1 km/h
199 22-11-2020 16:30:00 8.9 C 7.36 g/m*3 7.37 C 9.7 km/h
200 22-11-2020 16:35:00 8.9 C 7.45 g/m*3 8.1 C 6.4 km/h
Sensor: Nr:Datum:Temp:Abs-Feuchte:Windchill:Wind:
Aussen-T/F 201 22-11-2020 16:40:00 8.9 C 7.36 g/m*3 7.69 C 8.1 km/h
202 22-11-2020 16:45:00 8.8 C 7.4 g/m*3 7.58 C 8.1 km/h
203 22-11-2020 16:50:00 8.8 C 7.31 g/m*3 7.58 C 8.1 km/h
204 22-11-2020 16:55:00 8.8 C 7.4 g/m*3 7.25 C 9.7 km/h
205 22-11-2020 17:00:00 8.8 C 7.4 g/m*3 6.72 C 12.9 km/h
206 22-11-2020 17:05:00 8.8 C 7.4 g/m*3 7.58 C 8.1 km/h
207 22-11-2020 17:10:00 8.8 C 7.4 g/m*3 7.58 C 8.1 km/h
208 22-11-2020 17:15:00 8.8 C 7.4 g/m*3 7.58 C 8.1 km/h
209 22-11-2020 17:20:00 8.7 C 7.35 g/m*3 7.46 C 8.1 km/h
210 22-11-2020 17:25:00 8.7 C 7.35 g/m*3 7.13 C 9.7 km/h
211 22-11-2020 17:30:00 8.7 C 7.35 g/m*3 7.87 C 6.4 km/h
212 22-11-2020 17:35:00 8.7 C 7.35 g/m*3 7.13 C 9.7 km/h
213 22-11-2020 17:40:00 8.7 C 7.35 g/m*3 7.46 C 8.1 km/h
214 22-11-2020 17:45:00 8.7 C 7.35 g/m*3 7.13 C 9.7 km/h
215 22-11-2020 17:50:00 8.7 C 7.35 g/m*3 7.87 C 6.4 km/h
216 22-11-2020 17:55:00 8.7 C 7.35 g/m*3 7.13 C 9.7 km/h
217 22-11-2020 18:00:00 8.6 C 7.3 g/m*3 6.73 C 11.3 km/h
218 22-11-2020 18:05:00 8.6 C 7.3 g/m*3 7.01 C 9.7 km/h
219 22-11-2020 18:10:00 8.6 C 7.3 g/m*3 7.01 C 9.7 km/h
220 22-11-2020 18:15:00 8.6 C 7.3 g/m*3 7.34 C 8.1 km/h
221 22-11-2020 18:20:00 8.5 C 7.26 g/m*3 7.64 C 6.4 km/h
222 22-11-2020 18:25:00 8.5 C 7.26 g/m*3 6.9 C 9.7 km/h
223 22-11-2020 18:30:00 8.5 C 7.26 g/m*3 6.9 C 9.7 km/h
224 22-11-2020 18:35:00 8.5 C 7.26 g/m*3 8.5 C 4.8 km/h
225 22-11-2020 18:40:00 8.5 C 7.26 g/m*3 6.9 C 9.7 km/h
Sensor: Nr:Datum:Temp:Abs-Feuchte:Windchill:Wind:
Aussen-T/F 226 22-11-2020 18:45:00 8.5 C 7.26 g/m*3 6.9 C 9.7 km/h
227 22-11-2020 18:50:00 8.5 C 7.26 g/m*3 6.9 C 9.7 km/h
228 22-11-2020 18:55:00 8.5 C 7.26 g/m*3 6.36 C 12.9 km/h
229 22-11-2020 19:00:00 8.5 C 7.26 g/m*3 6.61 C 11.3 km/h
230 22-11-2020 19:05:00 8.5 C 7.26 g/m*3 7.22 C 8.1 km/h
231 22-11-2020 19:10:00 8.4 C 7.21 g/m*3 8.4 C 4.8 km/h
232 22-11-2020 19:15:00 8.4 C 7.21 g/m*3 7.52 C 6.4 km/h
233 22-11-2020 19:20:00 8.4 C 7.21 g/m*3 8.4 C 4.8 km/h
234 22-11-2020 19:25:00 8.4 C 7.3 g/m*3 8.4 C 4.8 km/h
235 22-11-2020 19:30:00 8.4 C 7.21 g/m*3 8.4 C 3.2 km/h
236 22-11-2020 19:35:00 8.4 C 7.21 g/m*3 8.4 C 1.6 km/h
237 22-11-2020 19:40:00 8.4 C 7.3 g/m*3 8.4 C 4.8 km/h
238 22-11-2020 19:45:00 8.4 C 7.3 g/m*3 7.52 C 6.4 km/h
239 22-11-2020 19:50:00 8.4 C 7.21 g/m*3 6.78 C 9.7 km/h
240 22-11-2020 19:55:00 8.4 C 7.3 g/m*3 7.52 C 6.4 km/h
241 22-11-2020 20:00:00 8.3 C 7.25 g/m*3 7.41 C 6.4 km/h
242 22-11-2020 20:05:00 8.3 C 7.16 g/m*3 8.3 C 4.8 km/h
243 22-11-2020 20:10:00 8.3 C 7.16 g/m*3 6.99 C 8.1 km/h
244 22-11-2020 20:15:00 8.4 C 7.21 g/m*3 7.52 C 6.4 km/h
245 22-11-2020 20:20:00 8.4 C 7.21 g/m*3 8.4 C 3.2 km/h
246 22-11-2020 20:25:00 8.4 C 7.3 g/m*3 8.4 C 4.8 km/h
247 22-11-2020 20:30:00 8.4 C 7.3 g/m*3 7.52 C 6.4 km/h
248 22-11-2020 20:35:00 8.4 C 7.3 g/m*3 7.11 C 8.1 km/h
249 22-11-2020 20:40:00 8.3 C 7.25 g/m*3 6.66 C 9.7 km/h
250 22-11-2020 20:45:00 8.3 C 7.25 g/m*3 8.3 C 4.8 km/h
Sensor: Nr:Datum:Temp:Abs-Feuchte:Windchill:Wind:
Aussen-T/F 251 22-11-2020 20:50:00 8.3 C 7.25 g/m*3 7.41 C 6.4 km/h
252 22-11-2020 20:55:00 8.3 C 7.25 g/m*3 7.41 C 6.4 km/h
253 22-11-2020 21:00:00 8.3 C 7.25 g/m*3 7.41 C 6.4 km/h
254 22-11-2020 21:05:00 8.3 C 7.25 g/m*3 8.3 C 4.8 km/h
255 22-11-2020 21:10:00 8.3 C 7.25 g/m*3 6.99 C 8.1 km/h
256 22-11-2020 21:15:00 8.3 C 7.33 g/m*3 8.3 C 4.8 km/h
257 22-11-2020 21:20:00 8.3 C 7.33 g/m*3 7.41 C 6.4 km/h
258 22-11-2020 21:25:00 8.3 C 7.33 g/m*3 7.41 C 6.4 km/h
259 22-11-2020 21:30:00 8.3 C 7.33 g/m*3 8.3 C 4.8 km/h
260 22-11-2020 21:35:00 8.3 C 7.33 g/m*3 8.3 C 3.2 km/h
261 22-11-2020 21:40:00 8.3 C 7.33 g/m*3 7.41 C 6.4 km/h
262 22-11-2020 21:45:00 8.3 C 7.33 g/m*3 8.3 C 3.2 km/h
263 22-11-2020 21:50:00 8.3 C 7.33 g/m*3 6.66 C 9.7 km/h
264 22-11-2020 21:55:00 8.3 C 7.33 g/m*3 6.99 C 8.1 km/h
265 22-11-2020 22:00:00 8.3 C 7.33 g/m*3 7.41 C 6.4 km/h
266 22-11-2020 22:05:00 8.3 C 7.33 g/m*3 6.66 C 9.7 km/h
267 22-11-2020 22:10:00 8.3 C 7.33 g/m*3 7.41 C 6.4 km/h
268 22-11-2020 22:15:00 8.3 C 7.33 g/m*3 6.99 C 8.1 km/h
269 22-11-2020 22:20:00 8.3 C 7.33 g/m*3 6.99 C 8.1 km/h
270 22-11-2020 22:25:00 8.3 C 7.33 g/m*3 6.12 C 12.9 km/h
271 22-11-2020 22:30:00 8.3 C 7.33 g/m*3 6.99 C 8.1 km/h
272 22-11-2020 22:35:00 8.3 C 7.33 g/m*3 6.66 C 9.7 km/h
273 22-11-2020 22:40:00 8.3 C 7.33 g/m*3 6.99 C 8.1 km/h
274 22-11-2020 22:45:00 8.3 C 7.33 g/m*3 6.99 C 8.1 km/h
275 22-11-2020 22:50:00 8.3 C 7.33 g/m*3 7.41 C 6.4 km/h
Sensor: Nr:Datum:Temp:Abs-Feuchte:Windchill:Wind:
Aussen-T/F 276 22-11-2020 22:55:00 8.3 C 7.42 g/m*3 8.3 C 4.8 km/h
277 22-11-2020 23:00:00 8.3 C 7.42 g/m*3 6.99 C 8.1 km/h
278 22-11-2020 23:05:00 8.3 C 7.42 g/m*3 8.3 C 3.2 km/h
279 22-11-2020 23:10:00 8.3 C 7.42 g/m*3 8.3 C 3.2 km/h
280 22-11-2020 23:15:00 8.3 C 7.42 g/m*3 8.3 C 4.8 km/h
281 22-11-2020 23:20:00 8.3 C 7.42 g/m*3 8.3 C 4.8 km/h
282 22-11-2020 23:25:00 8.3 C 7.42 g/m*3 8.3 C 4.8 km/h
283 22-11-2020 23:30:00 8.3 C 7.42 g/m*3 6.99 C 8.1 km/h
284 22-11-2020 23:35:00 8.3 C 7.42 g/m*3 6.66 C 9.7 km/h
285 22-11-2020 23:40:00 8.3 C 7.42 g/m*3 7.41 C 6.4 km/h
286 22-11-2020 23:45:00 8.3 C 7.42 g/m*3 6.99 C 8.1 km/h
287 22-11-2020 23:50:00 8.3 C 7.42 g/m*3 8.3 C 4.8 km/h
288 22-11-2020 23:55:00 8.3 C 7.42 g/m*3 8.3 C 4.8 km/h
289 23-11-2020 00:00:00 8.3 C 7.42 g/m*3 7.41 C 6.4 km/h
290 23-11-2020 00:05:00 8.3 C 7.42 g/m*3 7.41 C 6.4 km/h
291 23-11-2020 00:10:00 8.3 C 7.42 g/m*3 6.99 C 8.1 km/h
292 23-11-2020 00:15:00 8.3 C 7.42 g/m*3 6.99 C 8.1 km/h
293 23-11-2020 00:20:00 8.2 C 7.37 g/m*3 6.87 C 8.1 km/h
294 23-11-2020 00:25:00 8.2 C 7.37 g/m*3 7.29 C 6.4 km/h
295 23-11-2020 00:30:00 8.2 C 7.37 g/m*3 6.87 C 8.1 km/h
296 23-11-2020 00:35:00 8.2 C 7.37 g/m*3 6.87 C 8.1 km/h
297 23-11-2020 00:40:00 8.2 C 7.45 g/m*3 6.54 C 9.7 km/h
298 23-11-2020 00:45:00 8.2 C 7.45 g/m*3 6.54 C 9.7 km/h
299 23-11-2020 00:50:00 8.1 C 7.41 g/m*3 8.1 C 4.8 km/h
300 23-11-2020 00:55:00 8.1 C 7.41 g/m*3 6.75 C 8.1 km/h
Sensor: Nr:Datum:Temp:Abs-Feuchte:Windchill:Wind:
Aussen-T/F 301 23-11-2020 01:00:00 8.1 C 7.41 g/m*3 8.1 C 4.8 km/h
302 23-11-2020 01:05:00 8.1 C 7.41 g/m*3 8.1 C 3.2 km/h
303 23-11-2020 01:10:00 8.1 C 7.49 g/m*3 8.1 C 1.6 km/h
304 23-11-2020 01:15:00 8.1 C 7.49 g/m*3 8.1 C 4.8 km/h
305 23-11-2020 01:20:00 8.1 C 7.41 g/m*3 8.1 C 4.8 km/h
306 23-11-2020 01:25:00 8.1 C 7.49 g/m*3 8.1 C 3.2 km/h
307 23-11-2020 01:30:00 8.1 C 7.41 g/m*3 6.75 C 8.1 km/h
308 23-11-2020 01:35:00 8.1 C 7.41 g/m*3 8.1 C 4.8 km/h
309 23-11-2020 01:40:00 8.1 C 7.41 g/m*3 6.75 C 8.1 km/h
310 23-11-2020 01:45:00 8.1 C 7.41 g/m*3 6.42 C 9.7 km/h
311 23-11-2020 01:50:00 8.1 C 7.41 g/m*3 7.17 C 6.4 km/h
312 23-11-2020 01:55:00 8.1 C 7.41 g/m*3 7.17 C 6.4 km/h
313 23-11-2020 02:00:00 8.1 C 7.41 g/m*3 6.75 C 8.1 km/h
314 23-11-2020 02:05:00 8.1 C 7.41 g/m*3 6.75 C 8.1 km/h
315 23-11-2020 02:10:00 8.1 C 7.41 g/m*3 7.17 C 6.4 km/h
316 23-11-2020 02:15:00 8.1 C 7.41 g/m*3 7.17 C 6.4 km/h
317 23-11-2020 02:20:00 8.1 C 7.41 g/m*3 6.75 C 8.1 km/h
318 23-11-2020 02:25:00 8.1 C 7.41 g/m*3 8.1 C 4.8 km/h
319 23-11-2020 02:30:00 8 C 7.36 g/m*3 6.64 C 8.1 km/h
320 23-11-2020 02:35:00 8 C 7.36 g/m*3 6.64 C 8.1 km/h
321 23-11-2020 02:40:00 7.9 C 7.31 g/m*3 7.9 C 4.8 km/h
322 23-11-2020 02:45:00 7.9 C 7.31 g/m*3 6.18 C 9.7 km/h
323 23-11-2020 02:50:00 8 C 7.36 g/m*3 8 C 4.8 km/h
324 23-11-2020 02:55:00 7.9 C 7.31 g/m*3 6.94 C 6.4 km/h
325 23-11-2020 03:00:00 8 C 7.36 g/m*3 7.06 C 6.4 km/h
Sensor: Nr:Datum:Temp:Abs-Feuchte:Windchill:Wind:
Aussen-T/F 326 23-11-2020 03:05:00 8 C 7.36 g/m*3 7.06 C 6.4 km/h
327 23-11-2020 03:10:00 8 C 7.36 g/m*3 7.06 C 6.4 km/h
328 23-11-2020 03:15:00 8 C 7.36 g/m*3 6.3 C 9.7 km/h
329 23-11-2020 03:20:00 8 C 7.36 g/m*3 6.64 C 8.1 km/h
330 23-11-2020 03:25:00 8 C 7.36 g/m*3 6.64 C 8.1 km/h
331 23-11-2020 03:30:00 8 C 7.36 g/m*3 6.01 C 11.3 km/h
332 23-11-2020 03:35:00 8 C 7.36 g/m*3 6.64 C 8.1 km/h
333 23-11-2020 03:40:00 8 C 7.36 g/m*3 6.64 C 8.1 km/h
334 23-11-2020 03:45:00 7.9 C 7.31 g/m*3 6.52 C 8.1 km/h
335 23-11-2020 03:50:00 8 C 7.36 g/m*3 6.64 C 8.1 km/h
336 23-11-2020 03:55:00 8 C 7.36 g/m*3 8 C 4.8 km/h
337 23-11-2020 04:00:00 7.9 C 7.31 g/m*3 6.52 C 8.1 km/h
338 23-11-2020 04:05:00 7.9 C 7.31 g/m*3 7.9 C 4.8 km/h
339 23-11-2020 04:10:00 7.9 C 7.39 g/m*3 6.94 C 6.4 km/h
340 23-11-2020 04:15:00 7.9 C 7.39 g/m*3 6.52 C 8.1 km/h
341 23-11-2020 04:20:00 7.8 C 7.43 g/m*3 7.8 C 4.8 km/h
342 23-11-2020 04:25:00 7.8 C 7.43 g/m*3 7.8 C 4.8 km/h
343 23-11-2020 04:30:00 7.8 C 7.43 g/m*3 7.8 C 3.2 km/h
344 23-11-2020 04:35:00 7.8 C 7.43 g/m*3 6.83 C 6.4 km/h
345 23-11-2020 04:40:00 7.8 C 7.43 g/m*3 6.83 C 6.4 km/h
346 23-11-2020 04:45:00 7.8 C 7.43 g/m*3 6.83 C 6.4 km/h
347 23-11-2020 04:50:00 7.8 C 7.43 g/m*3 6.83 C 6.4 km/h
348 23-11-2020 04:55:00 7.8 C 7.43 g/m*3 6.83 C 6.4 km/h
349 23-11-2020 05:00:00 7.8 C 7.43 g/m*3 6.4 C 8.1 km/h
350 23-11-2020 05:05:00 7.8 C 7.43 g/m*3 7.8 C 1.6 km/h
Sensor: Nr:Datum:Temp:Abs-Feuchte:Windchill:Wind:
Aussen-T/F 351 23-11-2020 05:10:00 7.8 C 7.43 g/m*3 7.8 C 4.8 km/h
352 23-11-2020 05:15:00 7.9 C 7.47 g/m*3 7.9 C 4.8 km/h
353 23-11-2020 05:20:00 7.9 C 7.39 g/m*3 7.9 C 4.8 km/h
354 23-11-2020 05:25:00 7.8 C 7.35 g/m*3 7.8 C 1.6 km/h
355 23-11-2020 05:30:00 7.8 C 7.35 g/m*3 7.8 C 3.2 km/h
356 23-11-2020 05:35:00 7.8 C 7.35 g/m*3 7.8 C 3.2 km/h
357 23-11-2020 05:40:00 7.8 C 7.35 g/m*3 7.8 C 3.2 km/h
358 23-11-2020 05:45:00 7.8 C 7.35 g/m*3 7.8 C 1.6 km/h
359 23-11-2020 05:50:00 7.8 C 7.43 g/m*3 7.8 C 3.2 km/h
360 23-11-2020 05:55:00 7.8 C 7.43 g/m*3 6.4 C 8.1 km/h
361 23-11-2020 06:00:00 7.8 C 7.43 g/m*3 6.83 C 6.4 km/h
362 23-11-2020 06:05:00 7.8 C 7.43 g/m*3 6.83 C 6.4 km/h
363 23-11-2020 06:10:00 7.8 C 7.43 g/m*3 6.83 C 6.4 km/h
364 23-11-2020 06:15:00 7.8 C 7.43 g/m*3 6.83 C 6.4 km/h
365 23-11-2020 06:20:00 7.8 C 7.43 g/m*3 6.4 C 8.1 km/h
366 23-11-2020 06:25:00 7.8 C 7.43 g/m*3 6.83 C 6.4 km/h
367 23-11-2020 06:30:00 7.8 C 7.43 g/m*3 7.8 C 1.6 km/h
368 23-11-2020 06:35:00 7.8 C 7.43 g/m*3 6.83 C 6.4 km/h
369 23-11-2020 06:40:00 7.8 C 7.43 g/m*3 6.4 C 8.1 km/h
370 23-11-2020 06:45:00 7.8 C 7.43 g/m*3 6.4 C 8.1 km/h
371 23-11-2020 06:50:00 7.8 C 7.43 g/m*3 7.8 C 4.8 km/h
372 23-11-2020 06:55:00 7.7 C 7.38 g/m*3 6.71 C 6.4 km/h
373 23-11-2020 07:00:00 7.7 C 7.38 g/m*3 5.94 C 9.7 km/h
374 23-11-2020 07:05:00 7.7 C 7.38 g/m*3 5.94 C 9.7 km/h
375 23-11-2020 07:10:00 7.7 C 7.38 g/m*3 5.65 C 11.3 km/h
Sensor: Nr:Datum:Temp:Abs-Feuchte:Windchill:Wind:
Aussen-T/F 376 23-11-2020 07:15:00 7.7 C 7.38 g/m*3 5.94 C 9.7 km/h
377 23-11-2020 07:20:00 7.7 C 7.38 g/m*3 5.94 C 9.7 km/h
378 23-11-2020 07:25:00 7.7 C 7.38 g/m*3 6.28 C 8.1 km/h
379 23-11-2020 07:30:00 7.7 C 7.38 g/m*3 6.71 C 6.4 km/h
380 23-11-2020 07:35:00 7.7 C 7.38 g/m*3 6.28 C 8.1 km/h
381 23-11-2020 07:40:00 7.7 C 7.38 g/m*3 6.28 C 8.1 km/h
382 23-11-2020 07:45:00 7.7 C 7.38 g/m*3 6.28 C 8.1 km/h
383 23-11-2020 07:50:00 7.7 C 7.38 g/m*3 6.71 C 6.4 km/h
384 23-11-2020 07:55:00 7.6 C 7.41 g/m*3 6.6 C 6.4 km/h
385 23-11-2020 08:00:00 7.6 C 7.41 g/m*3 6.6 C 6.4 km/h
386 23-11-2020 08:05:00 7.7 C 7.46 g/m*3 6.71 C 6.4 km/h
387 23-11-2020 08:10:00 7.7 C 7.46 g/m*3 6.28 C 8.1 km/h
388 23-11-2020 08:15:00 7.7 C 7.46 g/m*3 6.71 C 6.4 km/h
389 23-11-2020 08:20:00 7.7 C 7.38 g/m*3 6.71 C 6.4 km/h
390 23-11-2020 08:25:00 7.8 C 7.43 g/m*3 6.4 C 8.1 km/h
391 23-11-2020 08:30:00 7.8 C 7.43 g/m*3 5.77 C 11.3 km/h
392 23-11-2020 08:35:00 7.8 C 7.43 g/m*3 6.4 C 8.1 km/h
393 23-11-2020 08:40:00 7.8 C 7.43 g/m*3 6.83 C 6.4 km/h
394 23-11-2020 08:45:00 7.8 C 7.43 g/m*3 6.83 C 6.4 km/h
395 23-11-2020 08:50:00 7.8 C 7.43 g/m*3 7.8 C 3.2 km/h
396 23-11-2020 08:55:00 7.9 C 7.56 g/m*3 7.9 C 4.8 km/h
397 23-11-2020 09:00:00 7.9 C 7.56 g/m*3 6.94 C 6.4 km/h
398 23-11-2020 09:05:00 7.8 C 7.51 g/m*3 7.8 C 4.8 km/h
399 23-11-2020 09:10:00 7.8 C 7.51 g/m*3 7.8 C 4.8 km/h
400 23-11-2020 09:15:00 7.8 C 7.59 g/m*3 6.83 C 6.4 km/h
Sensor: Nr:Datum:Temp:Abs-Feuchte:Windchill:Wind:
Aussen-T/F 401 23-11-2020 09:20:00 7.8 C 7.59 g/m*3 6.83 C 6.4 km/h
402 23-11-2020 09:25:00 7.8 C 7.59 g/m*3 7.8 C 4.8 km/h
403 23-11-2020 09:30:00 7.8 C 7.59 g/m*3 6.4 C 8.1 km/h
404 23-11-2020 09:35:00 7.9 C 7.64 g/m*3 6.18 C 9.7 km/h
405 23-11-2020 09:40:00 7.9 C 7.64 g/m*3 6.94 C 6.4 km/h
406 23-11-2020 09:45:00 7.9 C 7.64 g/m*3 6.94 C 6.4 km/h
407 23-11-2020 09:50:00 8 C 7.69 g/m*3 6.3 C 9.7 km/h
408 23-11-2020 09:55:00 8.1 C 7.74 g/m*3 8.1 C 4.8 km/h
409 23-11-2020 10:00:00 8.1 C 7.74 g/m*3 6.75 C 8.1 km/h
410 23-11-2020 10:05:00 8.2 C 7.79 g/m*3 7.29 C 6.4 km/h
411 23-11-2020 10:10:00 8.2 C 7.7 g/m*3 8.2 C 4.8 km/h
412 23-11-2020 10:15:00 8.3 C 7.75 g/m*3 6.99 C 8.1 km/h
413 23-11-2020 10:20:00 8.3 C 7.75 g/m*3 6.37 C 11.3 km/h
414 23-11-2020 10:25:00 8.3 C 7.75 g/m*3 6.99 C 8.1 km/h
415 23-11-2020 10:30:00 8.3 C 7.75 g/m*3 7.41 C 6.4 km/h
416 23-11-2020 10:35:00 8.3 C 7.75 g/m*3 8.3 C 4.8 km/h
417 23-11-2020 10:40:00 8.3 C 7.67 g/m*3 7.41 C 6.4 km/h
418 23-11-2020 10:45:00 8.3 C 7.67 g/m*3 8.3 C 1.6 km/h
419 23-11-2020 10:50:00 8.4 C 7.8 g/m*3 8.4 C 1.6 km/h
420 23-11-2020 10:55:00 8.4 C 7.72 g/m*3 8.4 C 1.6 km/h
421 23-11-2020 11:00:00 8.5 C 7.77 g/m*3 8.5 C 1.6 km/h
422 23-11-2020 11:05:00 8.6 C 7.82 g/m*3 8.6 C 4.8 km/h
423 23-11-2020 11:10:00 8.7 C 7.87 g/m*3 8.7 C 4.8 km/h
424 23-11-2020 11:15:00 8.7 C 7.87 g/m*3 7.87 C 6.4 km/h
425 23-11-2020 11:20:00 8.8 C 7.83 g/m*3 7.98 C 6.4 km/h
Sensor: Nr:Datum:Temp:Abs-Feuchte:Windchill:Wind:
Aussen-T/F 426 23-11-2020 11:25:00 8.8 C 7.83 g/m*3 8.8 C 4.8 km/h
427 23-11-2020 11:30:00 8.9 C 7.88 g/m*3 8.9 C 3.2 km/h
428 23-11-2020 11:35:00 9 C 7.93 g/m*3 8.21 C 6.4 km/h
429 23-11-2020 11:40:00 9.1 C 7.99 g/m*3 9.1 C 4.8 km/h
430 23-11-2020 11:45:00 9.1 C 7.9 g/m*3 8.33 C 6.4 km/h
431 23-11-2020 11:50:00 9 C 7.85 g/m*3 9 C 4.8 km/h
432 23-11-2020 11:55:00 8.9 C 7.8 g/m*3 8.9 C 3.2 km/h
433 23-11-2020 12:00:00 9 C 7.93 g/m*3 8.21 C 6.4 km/h
434 23-11-2020 12:05:00 9.1 C 7.99 g/m*3 9.1 C 3.2 km/h
435 23-11-2020 12:10:00 9.1 C 7.99 g/m*3 9.1 C 3.2 km/h
436 23-11-2020 12:15:00 9.2 C 7.95 g/m*3 9.2 C 3.2 km/h
437 23-11-2020 12:20:00 9.2 C 7.95 g/m*3 9.2 C 3.2 km/h
438 23-11-2020 12:25:00 9.3 C 8 g/m*3 9.3 C 3.2 km/h
439 23-11-2020 12:30:00 9.3 C 8 g/m*3 9.3 C 4.8 km/h
440 23-11-2020 12:35:00 9.3 C 7.91 g/m*3 8.56 C 6.4 km/h
441 23-11-2020 12:40:00 9.3 C 7.91 g/m*3 8.56 C 6.4 km/h
442 23-11-2020 12:45:00 9.3 C 7.91 g/m*3 9.3 C 3.2 km/h
443 23-11-2020 12:50:00 9.2 C 7.86 g/m*3 9.2 C 0 km/h
444 23-11-2020 12:55:00 9.2 C 7.86 g/m*3 9.2 C 1.6 km/h
445 23-11-2020 13:00:00 9.2 C 7.86 g/m*3 9.2 C 0 km/h
446 23-11-2020 13:05:00 9.2 C 7.86 g/m*3 9.2 C 0 km/h
447 23-11-2020 13:10:00 9.2 C 7.86 g/m*3 9.2 C 0 km/h
448 23-11-2020 13:15:00 9.2 C 7.95 g/m*3 9.2 C 0 km/h
449 23-11-2020 13:20:00 9.3 C 8 g/m*3 9.3 C 0 km/h
450 23-11-2020 13:25:00 9.4 C 8.05 g/m*3 9.4 C 3.2 km/h
Sensor: Nr:Datum:Temp:Abs-Feuchte:Windchill:Wind:
Aussen-T/F 451 23-11-2020 13:30:00 9.5 C 8.01 g/m*3 9.5 C 1.6 km/h
452 23-11-2020 13:35:00 9.6 C 7.97 g/m*3 9.6 C 3.2 km/h
453 23-11-2020 13:40:00 9.7 C 8.02 g/m*3 9.7 C 1.6 km/h
454 23-11-2020 13:45:00 9.7 C 8.02 g/m*3 9.7 C 1.6 km/h
455 23-11-2020 13:50:00 9.8 C 7.98 g/m*3 9.8 C 4.8 km/h
456 23-11-2020 13:55:00 9.8 C 7.98 g/m*3 9.8 C 1.6 km/h
457 23-11-2020 14:00:00 9.8 C 7.98 g/m*3 9.8 C 4.8 km/h
458 23-11-2020 14:05:00 9.8 C 7.98 g/m*3 9.8 C 4.8 km/h
459 23-11-2020 14:10:00 9.8 C 7.98 g/m*3 9.8 C 4.8 km/h
460 23-11-2020 14:15:00 9.8 C 7.98 g/m*3 9.8 C 1.6 km/h
461 23-11-2020 14:20:00 9.8 C 7.98 g/m*3 9.8 C 4.8 km/h
462 23-11-2020 14:25:00 9.8 C 7.98 g/m*3 9.14 C 6.4 km/h
463 23-11-2020 14:30:00 9.7 C 7.93 g/m*3 9.7 C 3.2 km/h
464 23-11-2020 14:35:00 9.7 C 7.93 g/m*3 9.7 C 4.8 km/h
465 23-11-2020 14:40:00 9.7 C 7.93 g/m*3 9.7 C 3.2 km/h
466 23-11-2020 14:45:00 9.7 C 7.93 g/m*3 9.7 C 3.2 km/h
467 23-11-2020 14:50:00 9.7 C 7.93 g/m*3 9.7 C 1.6 km/h
468 23-11-2020 14:55:00 9.8 C 7.98 g/m*3 9.8 C 3.2 km/h
469 23-11-2020 15:00:00 9.8 C 7.98 g/m*3 9.8 C 0 km/h
470 23-11-2020 15:05:00 9.8 C 7.98 g/m*3 9.8 C 3.2 km/h
471 23-11-2020 15:10:00 9.8 C 7.98 g/m*3 9.8 C 0 km/h
472 23-11-2020 15:15:00 9.8 C 7.98 g/m*3 9.8 C 0 km/h
473 23-11-2020 15:20:00 9.7 C 7.93 g/m*3 9.7 C 0 km/h
474 23-11-2020 15:25:00 9.8 C 7.98 g/m*3 9.8 C 0 km/h
475 23-11-2020 15:30:00 9.8 C 7.98 g/m*3 9.8 C 0 km/h
Sensor: Nr:Datum:Temp:Abs-Feuchte:Windchill:Wind:
Aussen-T/F 476 23-11-2020 15:35:00 9.8 C 7.98 g/m*3 9.8 C 0 km/h
477 23-11-2020 15:40:00 9.8 C 7.98 g/m*3 9.8 C 0 km/h
478 23-11-2020 15:45:00 9.7 C 7.93 g/m*3 9.7 C 0 km/h
479 23-11-2020 15:50:00 9.7 C 7.93 g/m*3 9.7 C 0 km/h
480 23-11-2020 15:55:00 9.7 C 7.93 g/m*3 9.7 C 0 km/h
481 23-11-2020 16:00:00 9.6 C 7.88 g/m*3 9.6 C 0 km/h
482 23-11-2020 16:05:00 9.6 C 7.88 g/m*3 9.6 C 0 km/h
483 23-11-2020 16:10:00 9.5 C 7.92 g/m*3 9.5 C 0 km/h
484 23-11-2020 16:15:00 9.4 C 7.87 g/m*3 9.4 C 0 km/h
485 23-11-2020 16:20:00 9.3 C 7.82 g/m*3 9.3 C 0 km/h
486 23-11-2020 16:25:00 9.2 C 7.77 g/m*3 9.2 C 0 km/h
487 23-11-2020 16:30:00 9.2 C 7.77 g/m*3 9.2 C 1.6 km/h
488 23-11-2020 16:35:00 9.1 C 7.81 g/m*3 9.1 C 0 km/h
489 23-11-2020 16:40:00 9.1 C 7.81 g/m*3 9.1 C 0 km/h
490 23-11-2020 16:45:00 9 C 7.76 g/m*3 9 C 0 km/h
491 23-11-2020 16:50:00 8.9 C 7.71 g/m*3 8.9 C 0 km/h
492 23-11-2020 16:55:00 8.9 C 7.8 g/m*3 8.9 C 0 km/h
493 23-11-2020 17:00:00 8.8 C 7.66 g/m*3 8.8 C 0 km/h
494 23-11-2020 17:05:00 8.6 C 7.56 g/m*3 8.6 C 3.2 km/h
495 23-11-2020 17:10:00 8.3 C 7.33 g/m*3 8.3 C 3.2 km/h
496 23-11-2020 17:15:00 7.9 C 7.23 g/m*3 7.9 C 4.8 km/h
497 23-11-2020 17:20:00 7.7 C 7.14 g/m*3 7.7 C 4.8 km/h
498 23-11-2020 17:25:00 7.5 C 7.04 g/m*3 7.5 C 3.2 km/h
499 23-11-2020 17:30:00 7.2 C 6.99 g/m*3 7.2 C 4.8 km/h
500 23-11-2020 17:35:00 7.1 C 7.02 g/m*3 7.1 C 1.6 km/h
Sensor: Nr:Datum:Temp:Abs-Feuchte:Windchill:Wind:
Aussen-T/F 501 23-11-2020 17:40:00 6.9 C 6.93 g/m*3 6.9 C 3.2 km/h
502 23-11-2020 17:45:00 6.8 C 6.88 g/m*3 6.8 C 0 km/h
503 23-11-2020 17:50:00 6.6 C 6.87 g/m*3 6.6 C 1.6 km/h
504 23-11-2020 17:55:00 6.4 C 6.78 g/m*3 6.4 C 1.6 km/h
505 23-11-2020 18:00:00 6.3 C 6.74 g/m*3 6.3 C 0 km/h
506 23-11-2020 18:05:00 6.1 C 6.65 g/m*3 6.1 C 0 km/h
507 23-11-2020 18:10:00 5.9 C 6.56 g/m*3 5.9 C 1.6 km/h
508 23-11-2020 18:15:00 5.8 C 6.59 g/m*3 5.8 C 0 km/h
509 23-11-2020 18:20:00 5.7 C 6.55 g/m*3 5.7 C 0 km/h
510 23-11-2020 18:25:00 5.5 C 6.46 g/m*3 5.5 C 0 km/h
511 23-11-2020 18:30:00 5.3 C 6.38 g/m*3 5.3 C 0 km/h
512 23-11-2020 18:35:00 5.2 C 6.33 g/m*3 5.2 C 0 km/h
513 23-11-2020 18:40:00 5.1 C 6.36 g/m*3 5.1 C 0 km/h
514 23-11-2020 18:45:00 4.9 C 6.28 g/m*3 4.9 C 0 km/h
515 23-11-2020 18:50:00 4.8 C 6.24 g/m*3 4.8 C 0 km/h
516 23-11-2020 18:55:00 4.8 C 6.24 g/m*3 4.8 C 0 km/h
517 23-11-2020 19:00:00 4.9 C 6.35 g/m*3 4.9 C 3.2 km/h
518 23-11-2020 19:05:00 5 C 6.39 g/m*3 5 C 0 km/h
519 23-11-2020 19:10:00 5 C 6.39 g/m*3 5 C 1.6 km/h
520 23-11-2020 19:15:00 5 C 6.39 g/m*3 5 C 0 km/h
521 23-11-2020 19:20:00 4.9 C 6.35 g/m*3 4.9 C 0 km/h
522 23-11-2020 19:25:00 4.8 C 6.3 g/m*3 4.8 C 0 km/h
523 23-11-2020 19:30:00 4.7 C 6.26 g/m*3 4.7 C 0 km/h
524 23-11-2020 19:35:00 4.7 C 6.26 g/m*3 4.7 C 0 km/h
525 23-11-2020 19:40:00 4.6 C 6.22 g/m*3 4.6 C 1.6 km/h
Sensor: Nr:Datum:Temp:Abs-Feuchte:Windchill:Wind:
Aussen-T/F 526 23-11-2020 19:45:00 4.5 C 6.18 g/m*3 4.5 C 0 km/h
527 23-11-2020 19:50:00 4.4 C 6.14 g/m*3 4.4 C 0 km/h
528 23-11-2020 19:55:00 4.3 C 6.1 g/m*3 4.3 C 0 km/h
529 23-11-2020 20:00:00 4.2 C 6.06 g/m*3 4.2 C 0 km/h
530 23-11-2020 20:05:00 4.2 C 6.06 g/m*3 4.2 C 0 km/h
531 23-11-2020 20:10:00 4.2 C 6.12 g/m*3 4.2 C 0 km/h
532 23-11-2020 20:15:00 4.3 C 6.16 g/m*3 4.3 C 0 km/h
533 23-11-2020 20:20:00 4.4 C 6.2 g/m*3 4.4 C 0 km/h
534 23-11-2020 20:25:00 4.6 C 6.29 g/m*3 4.6 C 0 km/h
535 23-11-2020 20:30:00 4.8 C 6.44 g/m*3 4.8 C 0 km/h
536 23-11-2020 20:35:00 4.9 C 6.48 g/m*3 4.9 C 0 km/h
537 23-11-2020 20:40:00 5.1 C 6.57 g/m*3 5.1 C 0 km/h
538 23-11-2020 20:45:00 5.1 C 6.57 g/m*3 5.1 C 0 km/h
539 23-11-2020 20:50:00 5.2 C 6.61 g/m*3 5.2 C 0 km/h
540 23-11-2020 20:55:00 5.3 C 6.65 g/m*3 5.3 C 0 km/h
541 23-11-2020 21:00:00 5.4 C 6.7 g/m*3 5.4 C 0 km/h
542 23-11-2020 21:05:00 5.6 C 6.79 g/m*3 5.6 C 0 km/h
543 23-11-2020 21:10:00 5.7 C 6.83 g/m*3 5.7 C 0 km/h
544 23-11-2020 21:15:00 5.8 C 6.88 g/m*3 5.8 C 0 km/h
545 23-11-2020 21:20:00 6 C 6.97 g/m*3 6 C 0 km/h
546 23-11-2020 21:25:00 6.2 C 7.06 g/m*3 6.2 C 0 km/h
547 23-11-2020 21:30:00 6.3 C 7.11 g/m*3 6.3 C 1.6 km/h
548 23-11-2020 21:35:00 6.3 C 7.11 g/m*3 6.3 C 3.2 km/h
549 23-11-2020 21:40:00 6.4 C 7.15 g/m*3 6.4 C 0 km/h
550 23-11-2020 21:45:00 6.4 C 7.15 g/m*3 6.4 C 0 km/h
Sensor: Nr:Datum:Temp:Abs-Feuchte:Windchill:Wind:
Aussen-T/F 551 23-11-2020 21:50:00 6.4 C 7.15 g/m*3 6.4 C 0 km/h
552 23-11-2020 21:55:00 6.4 C 7.15 g/m*3 6.4 C 0 km/h
553 23-11-2020 22:00:00 6.5 C 7.2 g/m*3 6.5 C 0 km/h
554 23-11-2020 22:05:00 6.6 C 7.25 g/m*3 6.6 C 1.6 km/h
555 23-11-2020 22:10:00 6.7 C 7.29 g/m*3 6.7 C 1.6 km/h
556 23-11-2020 22:15:00 6.8 C 7.34 g/m*3 6.8 C 0 km/h
557 23-11-2020 22:20:00 6.8 C 7.34 g/m*3 6.8 C 0 km/h
558 23-11-2020 22:25:00 6.8 C 7.34 g/m*3 6.8 C 0 km/h
559 23-11-2020 22:30:00 6.8 C 7.34 g/m*3 6.8 C 0 km/h
560 23-11-2020 22:35:00 6.8 C 7.34 g/m*3 6.8 C 4.8 km/h
561 23-11-2020 22:40:00 6.9 C 7.39 g/m*3 6.9 C 1.6 km/h
562 23-11-2020 22:45:00 6.8 C 7.34 g/m*3 6.8 C 0 km/h
563 23-11-2020 22:50:00 6.8 C 7.34 g/m*3 6.8 C 0 km/h
564 23-11-2020 22:55:00 6.8 C 7.34 g/m*3 6.8 C 0 km/h
565 23-11-2020 23:00:00 6.8 C 7.34 g/m*3 6.8 C 0 km/h
566 23-11-2020 23:05:00 6.9 C 7.39 g/m*3 6.9 C 0 km/h
567 23-11-2020 23:10:00 6.9 C 7.39 g/m*3 6.9 C 0 km/h
568 23-11-2020 23:15:00 6.9 C 7.39 g/m*3 6.9 C 0 km/h
569 23-11-2020 23:20:00 7 C 7.44 g/m*3 7 C 0 km/h
570 23-11-2020 23:25:00 7 C 7.44 g/m*3 7 C 0 km/h
571 23-11-2020 23:30:00 7 C 7.44 g/m*3 7 C 0 km/h
572 23-11-2020 23:35:00 7 C 7.44 g/m*3 7 C 0 km/h
573 23-11-2020 23:40:00 7 C 7.44 g/m*3 7 C 0 km/h
574 23-11-2020 23:45:00 7 C 7.44 g/m*3 7 C 0 km/h
575 23-11-2020 23:50:00 7 C 7.44 g/m*3 7 C 0 km/h
Sensor: Nr:Datum:Temp:Abs-Feuchte:Windchill:Wind:
Aussen-T/F 576 23-11-2020 23:55:00 7 C 7.44 g/m*3 7 C 0 km/h
577 24-11-2020 00:00:00 6.9 C 7.39 g/m*3 6.9 C 0 km/h
578 24-11-2020 00:05:00 6.9 C 7.39 g/m*3 6.9 C 0 km/h
579 24-11-2020 00:10:00 7 C 7.36 g/m*3 7 C 1.6 km/h
580 24-11-2020 00:15:00 7 C 7.36 g/m*3 7 C 4.8 km/h
581 24-11-2020 00:20:00 7 C 7.36 g/m*3 7 C 3.2 km/h
582 24-11-2020 00:25:00 7 C 7.36 g/m*3 7 C 1.6 km/h
583 24-11-2020 00:30:00 7 C 7.36 g/m*3 7 C 0 km/h
584 24-11-2020 00:35:00 7 C 7.36 g/m*3 7 C 0 km/h
585 24-11-2020 00:40:00 6.9 C 7.31 g/m*3 6.9 C 0 km/h
586 24-11-2020 00:45:00 6.9 C 7.24 g/m*3 6.9 C 0 km/h
587 24-11-2020 00:50:00 6.8 C 7.19 g/m*3 6.8 C 4.8 km/h
588 24-11-2020 00:55:00 6.8 C 7.19 g/m*3 6.8 C 0 km/h
589 24-11-2020 01:00:00 6.8 C 7.19 g/m*3 6.8 C 0 km/h
590 24-11-2020 01:05:00 6.7 C 7.14 g/m*3 6.7 C 0 km/h
591 24-11-2020 01:10:00 6.7 C 7.14 g/m*3 6.7 C 0 km/h
592 24-11-2020 01:15:00 6.7 C 7.14 g/m*3 6.7 C 0 km/h
593 24-11-2020 01:20:00 6.7 C 7.14 g/m*3 6.7 C 1.6 km/h
594 24-11-2020 01:25:00 6.6 C 7.1 g/m*3 6.6 C 1.6 km/h
595 24-11-2020 01:30:00 6.6 C 7.1 g/m*3 6.6 C 0 km/h
596 24-11-2020 01:35:00 6.6 C 7.1 g/m*3 6.6 C 0 km/h
597 24-11-2020 01:40:00 6.6 C 7.1 g/m*3 6.6 C 0 km/h
598 24-11-2020 01:45:00 6.6 C 7.1 g/m*3 6.6 C 0 km/h
599 24-11-2020 01:50:00 6.6 C 7.1 g/m*3 6.6 C 0 km/h
600 24-11-2020 01:55:00 6.6 C 7.1 g/m*3 6.6 C 1.6 km/h
Sensor: Nr:Datum:Temp:Abs-Feuchte:Windchill:Wind:
Aussen-T/F 601 24-11-2020 02:00:00 6.6 C 7.1 g/m*3 6.6 C 1.6 km/h
602 24-11-2020 02:05:00 6.6 C 7.1 g/m*3 6.6 C 1.6 km/h
603 24-11-2020 02:10:00 6.5 C 7.05 g/m*3 6.5 C 3.2 km/h
604 24-11-2020 02:15:00 6.5 C 7.05 g/m*3 6.5 C 0 km/h
605 24-11-2020 02:20:00 6.5 C 7.05 g/m*3 6.5 C 1.6 km/h
606 24-11-2020 02:25:00 6.4 C 6.93 g/m*3 6.4 C 3.2 km/h
607 24-11-2020 02:30:00 6.4 C 6.93 g/m*3 6.4 C 4.8 km/h
608 24-11-2020 02:35:00 6.4 C 6.93 g/m*3 4.75 C 8.1 km/h
609 24-11-2020 02:40:00 6.4 C 6.93 g/m*3 6.4 C 1.6 km/h
610 24-11-2020 02:45:00 6.4 C 6.93 g/m*3 6.4 C 1.6 km/h
611 24-11-2020 02:50:00 6.3 C 6.88 g/m*3 6.3 C 1.6 km/h
612 24-11-2020 02:55:00 6.4 C 6.93 g/m*3 6.4 C 0 km/h
613 24-11-2020 03:00:00 6.4 C 6.93 g/m*3 6.4 C 0 km/h
614 24-11-2020 03:05:00 6.4 C 6.93 g/m*3 6.4 C 0 km/h
615 24-11-2020 03:10:00 6.3 C 6.88 g/m*3 6.3 C 0 km/h
616 24-11-2020 03:15:00 6.3 C 6.88 g/m*3 6.3 C 0 km/h
617 24-11-2020 03:20:00 6.3 C 6.88 g/m*3 6.3 C 0 km/h
618 24-11-2020 03:25:00 6.3 C 6.88 g/m*3 6.3 C 0 km/h
619 24-11-2020 03:30:00 6.3 C 6.88 g/m*3 6.3 C 1.6 km/h
620 24-11-2020 03:35:00 6.3 C 6.88 g/m*3 6.3 C 1.6 km/h
621 24-11-2020 03:40:00 6.3 C 6.88 g/m*3 6.3 C 3.2 km/h
622 24-11-2020 03:45:00 6.3 C 6.88 g/m*3 6.3 C 0 km/h
623 24-11-2020 03:50:00 6.2 C 6.84 g/m*3 4.98 C 6.4 km/h
624 24-11-2020 03:55:00 6.2 C 6.84 g/m*3 6.2 C 4.8 km/h
625 24-11-2020 04:00:00 6.2 C 6.84 g/m*3 6.2 C 0 km/h
Sensor: Nr:Datum:Temp:Abs-Feuchte:Windchill:Wind:
Aussen-T/F 626 24-11-2020 04:05:00 6.1 C 6.79 g/m*3 6.1 C 4.8 km/h
627 24-11-2020 04:10:00 6.1 C 6.79 g/m*3 6.1 C 0 km/h
628 24-11-2020 04:15:00 6.1 C 6.79 g/m*3 6.1 C 1.6 km/h
629 24-11-2020 04:20:00 6.1 C 6.79 g/m*3 6.1 C 0 km/h
630 24-11-2020 04:25:00 6.1 C 6.79 g/m*3 6.1 C 0 km/h
631 24-11-2020 04:30:00 6 C 6.82 g/m*3 6 C 0 km/h
632 24-11-2020 04:35:00 6 C 6.82 g/m*3 6 C 4.8 km/h
633 24-11-2020 04:40:00 6 C 6.82 g/m*3 6 C 1.6 km/h
634 24-11-2020 04:45:00 6 C 6.82 g/m*3 6 C 4.8 km/h
635 24-11-2020 04:50:00 6 C 6.82 g/m*3 6 C 1.6 km/h
636 24-11-2020 04:55:00 5.9 C 6.78 g/m*3 5.9 C 1.6 km/h
637 24-11-2020 05:00:00 5.9 C 6.78 g/m*3 5.9 C 1.6 km/h
638 24-11-2020 05:05:00 5.9 C 6.78 g/m*3 5.9 C 1.6 km/h
639 24-11-2020 05:10:00 5.9 C 6.78 g/m*3 5.9 C 0 km/h
640 24-11-2020 05:15:00 5.9 C 6.78 g/m*3 5.9 C 0 km/h
641 24-11-2020 05:20:00 5.9 C 6.78 g/m*3 5.9 C 3.2 km/h
642 24-11-2020 05:25:00 5.8 C 6.73 g/m*3 5.8 C 0 km/h
643 24-11-2020 05:30:00 5.9 C 6.78 g/m*3 5.9 C 0 km/h
644 24-11-2020 05:35:00 5.8 C 6.73 g/m*3 5.8 C 0 km/h
645 24-11-2020 05:40:00 5.9 C 6.78 g/m*3 5.9 C 0 km/h
646 24-11-2020 05:45:00 5.9 C 6.78 g/m*3 5.9 C 0 km/h
647 24-11-2020 05:50:00 5.8 C 6.73 g/m*3 5.8 C 1.6 km/h
648 24-11-2020 05:55:00 5.8 C 6.73 g/m*3 5.8 C 0 km/h
649 24-11-2020 06:00:00 5.8 C 6.73 g/m*3 5.8 C 1.6 km/h
650 24-11-2020 06:05:00 5.8 C 6.73 g/m*3 5.8 C 1.6 km/h
Sensor: Nr:Datum:Temp:Abs-Feuchte:Windchill:Wind:
Aussen-T/F 651 24-11-2020 06:10:00 5.8 C 6.73 g/m*3 5.8 C 0 km/h
652 24-11-2020 06:15:00 5.8 C 6.73 g/m*3 5.8 C 1.6 km/h
653 24-11-2020 06:20:00 5.7 C 6.69 g/m*3 5.7 C 0 km/h
654 24-11-2020 06:25:00 5.7 C 6.69 g/m*3 5.7 C 0 km/h
655 24-11-2020 06:30:00 5.7 C 6.69 g/m*3 5.7 C 0 km/h
656 24-11-2020 06:35:00 5.8 C 6.73 g/m*3 5.8 C 0 km/h
657 24-11-2020 06:40:00 5.8 C 6.73 g/m*3 5.8 C 0 km/h
658 24-11-2020 06:45:00 5.8 C 6.73 g/m*3 5.8 C 0 km/h
659 24-11-2020 06:50:00 5.8 C 6.73 g/m*3 5.8 C 0 km/h
660 24-11-2020 06:55:00 5.8 C 6.73 g/m*3 5.8 C 0 km/h
661 24-11-2020 07:00:00 5.8 C 6.73 g/m*3 5.8 C 0 km/h
662 24-11-2020 07:05:00 5.9 C 6.78 g/m*3 5.9 C 1.6 km/h
663 24-11-2020 07:10:00 5.8 C 6.73 g/m*3 4.52 C 6.4 km/h
664 24-11-2020 07:15:00 5.7 C 6.69 g/m*3 4.4 C 6.4 km/h
665 24-11-2020 07:20:00 5.7 C 6.69 g/m*3 4.4 C 6.4 km/h
666 24-11-2020 07:25:00 5.6 C 6.65 g/m*3 5.6 C 4.8 km/h
667 24-11-2020 07:30:00 5.6 C 6.65 g/m*3 5.6 C 1.6 km/h
668 24-11-2020 07:35:00 5.5 C 6.6 g/m*3 4.17 C 6.4 km/h
669 24-11-2020 07:40:00 5.4 C 6.56 g/m*3 5.4 C 4.8 km/h
670 24-11-2020 07:45:00 5.4 C 6.56 g/m*3 5.4 C 1.6 km/h
671 24-11-2020 07:50:00 5.4 C 6.56 g/m*3 5.4 C 3.2 km/h
672 24-11-2020 07:55:00 5.4 C 6.56 g/m*3 5.4 C 3.2 km/h
673 24-11-2020 08:00:00 5.4 C 6.56 g/m*3 5.4 C 0 km/h
674 24-11-2020 08:05:00 5.4 C 6.56 g/m*3 5.4 C 3.2 km/h
675 24-11-2020 08:10:00 5.4 C 6.56 g/m*3 5.4 C 0 km/h
Sensor: Nr:Datum:Temp:Abs-Feuchte:Windchill:Wind:
Aussen-T/F 676 24-11-2020 08:15:00 5.4 C 6.56 g/m*3 5.4 C 3.2 km/h
677 24-11-2020 08:20:00 5.4 C 6.56 g/m*3 5.4 C 4.8 km/h
678 24-11-2020 08:25:00 5.3 C 6.52 g/m*3 5.3 C 4.8 km/h
679 24-11-2020 08:30:00 5.3 C 6.52 g/m*3 5.3 C 3.2 km/h
680 24-11-2020 08:35:00 5.3 C 6.52 g/m*3 5.3 C 4.8 km/h
681 24-11-2020 08:40:00 5.2 C 6.47 g/m*3 3.82 C 6.4 km/h
682 24-11-2020 08:45:00 5.2 C 6.47 g/m*3 5.2 C 4.8 km/h
683 24-11-2020 08:50:00 5.2 C 6.47 g/m*3 5.2 C 3.2 km/h
684 24-11-2020 08:55:00 5.2 C 6.47 g/m*3 5.2 C 3.2 km/h
685 24-11-2020 09:00:00 5.1 C 6.43 g/m*3 5.1 C 4.8 km/h
686 24-11-2020 09:05:00 5.1 C 6.43 g/m*3 3.71 C 6.4 km/h
687 24-11-2020 09:10:00 5.1 C 6.43 g/m*3 5.1 C 0 km/h
688 24-11-2020 09:15:00 5.2 C 6.47 g/m*3 5.2 C 1.6 km/h
689 24-11-2020 09:20:00 5.2 C 6.47 g/m*3 5.2 C 3.2 km/h
690 24-11-2020 09:25:00 5.2 C 6.47 g/m*3 5.2 C 4.8 km/h
691 24-11-2020 09:30:00 5.2 C 6.47 g/m*3 5.2 C 4.8 km/h
692 24-11-2020 09:35:00 5.3 C 6.52 g/m*3 5.3 C 3.2 km/h
693 24-11-2020 09:40:00 5.3 C 6.52 g/m*3 5.3 C 3.2 km/h
694 24-11-2020 09:45:00 5.3 C 6.52 g/m*3 5.3 C 0 km/h
695 24-11-2020 09:50:00 5.4 C 6.56 g/m*3 5.4 C 0 km/h
696 24-11-2020 09:55:00 5.5 C 6.6 g/m*3 5.5 C 0 km/h
697 24-11-2020 10:00:00 5.6 C 6.65 g/m*3 5.6 C 0 km/h
698 24-11-2020 10:05:00 5.6 C 6.65 g/m*3 5.6 C 1.6 km/h
699 24-11-2020 10:10:00 5.7 C 6.69 g/m*3 5.7 C 0 km/h
700 24-11-2020 10:15:00 5.8 C 6.73 g/m*3 5.8 C 0 km/h
Sensor: Nr:Datum:Temp:Abs-Feuchte:Windchill:Wind:
Aussen-T/F 701 24-11-2020 10:20:00 5.9 C 6.78 g/m*3 5.9 C 1.6 km/h
702 24-11-2020 10:25:00 6 C 6.82 g/m*3 6 C 0 km/h
703 24-11-2020 10:30:00 6.1 C 6.79 g/m*3 6.1 C 1.6 km/h
704 24-11-2020 10:35:00 6.1 C 6.79 g/m*3 6.1 C 0 km/h
705 24-11-2020 10:40:00 6.2 C 6.84 g/m*3 6.2 C 0 km/h
706 24-11-2020 10:45:00 6.2 C 6.84 g/m*3 6.2 C 1.6 km/h
707 24-11-2020 10:50:00 6.3 C 6.88 g/m*3 6.3 C 3.2 km/h
708 24-11-2020 10:55:00 6.4 C 6.93 g/m*3 6.4 C 3.2 km/h
709 24-11-2020 11:00:00 6.4 C 6.93 g/m*3 6.4 C 1.6 km/h
710 24-11-2020 11:05:00 6.5 C 6.9 g/m*3 6.5 C 0 km/h
711 24-11-2020 11:10:00 6.6 C 6.95 g/m*3 6.6 C 1.6 km/h
712 24-11-2020 11:15:00 6.6 C 6.95 g/m*3 6.6 C 0 km/h
713 24-11-2020 11:20:00 6.6 C 6.95 g/m*3 6.6 C 1.6 km/h
714 24-11-2020 11:25:00 6.6 C 6.87 g/m*3 6.6 C 3.2 km/h
715 24-11-2020 11:30:00 6.7 C 6.91 g/m*3 6.7 C 4.8 km/h
716 24-11-2020 11:35:00 6.7 C 6.91 g/m*3 6.7 C 3.2 km/h
717 24-11-2020 11:40:00 6.8 C 6.96 g/m*3 6.8 C 1.6 km/h
718 24-11-2020 11:45:00 6.8 C 6.96 g/m*3 6.8 C 3.2 km/h
719 24-11-2020 11:50:00 6.9 C 6.93 g/m*3 6.9 C 3.2 km/h
720 24-11-2020 11:55:00 6.9 C 6.93 g/m*3 5.34 C 8.1 km/h
721 24-11-2020 12:00:00 7 C 6.97 g/m*3 7 C 4.8 km/h
722 24-11-2020 12:05:00 7 C 6.97 g/m*3 7 C 1.6 km/h
723 24-11-2020 12:10:00 7.1 C 7.02 g/m*3 7.1 C 3.2 km/h
724 24-11-2020 12:15:00 7.2 C 6.99 g/m*3 7.2 C 4.8 km/h
725 24-11-2020 12:20:00 7.2 C 6.99 g/m*3 7.2 C 3.2 km/h
Sensor: Nr:Datum:Temp:Abs-Feuchte:Windchill:Wind:
Aussen-T/F 726 24-11-2020 12:25:00 7.2 C 6.99 g/m*3 7.2 C 0 km/h
727 24-11-2020 12:30:00 7.2 C 6.99 g/m*3 7.2 C 3.2 km/h
728 24-11-2020 12:35:00 7.2 C 6.99 g/m*3 7.2 C 0 km/h
729 24-11-2020 12:40:00 7.3 C 7.03 g/m*3 7.3 C 4.8 km/h
730 24-11-2020 12:45:00 7.3 C 6.95 g/m*3 7.3 C 4.8 km/h
731 24-11-2020 12:50:00 7.3 C 6.95 g/m*3 7.3 C 3.2 km/h
732 24-11-2020 12:55:00 7.3 C 6.95 g/m*3 7.3 C 1.6 km/h
733 24-11-2020 13:00:00 7.3 C 6.95 g/m*3 5.81 C 8.1 km/h
734 24-11-2020 13:05:00 7.3 C 6.95 g/m*3 7.3 C 4.8 km/h
735 24-11-2020 13:10:00 7.3 C 6.95 g/m*3 6.25 C 6.4 km/h
736 24-11-2020 13:15:00 7.3 C 6.95 g/m*3 6.25 C 6.4 km/h
737 24-11-2020 13:20:00 7.2 C 6.91 g/m*3 5.69 C 8.1 km/h
738 24-11-2020 13:25:00 7.3 C 7.03 g/m*3 7.3 C 1.6 km/h
739 24-11-2020 13:30:00 7.3 C 7.03 g/m*3 7.3 C 4.8 km/h
740 24-11-2020 13:35:00 7.3 C 6.95 g/m*3 7.3 C 3.2 km/h
741 24-11-2020 13:40:00 7.3 C 7.03 g/m*3 7.3 C 1.6 km/h
742 24-11-2020 13:45:00 7.3 C 7.03 g/m*3 7.3 C 1.6 km/h
743 24-11-2020 13:50:00 7.2 C 6.99 g/m*3 6.13 C 6.4 km/h
744 24-11-2020 13:55:00 7.2 C 6.91 g/m*3 7.2 C 4.8 km/h
745 24-11-2020 14:00:00 7.2 C 6.91 g/m*3 7.2 C 4.8 km/h
746 24-11-2020 14:05:00 7.2 C 6.99 g/m*3 7.2 C 0 km/h
747 24-11-2020 14:10:00 7.1 C 6.94 g/m*3 7.1 C 3.2 km/h
748 24-11-2020 14:15:00 7.1 C 6.94 g/m*3 7.1 C 3.2 km/h
749 24-11-2020 14:20:00 7.1 C 6.94 g/m*3 7.1 C 1.6 km/h
750 24-11-2020 14:25:00 7 C 6.9 g/m*3 7 C 4.8 km/h
Sensor: Nr:Datum:Temp:Abs-Feuchte:Windchill:Wind:
Aussen-T/F 751 24-11-2020 14:30:00 6.9 C 6.85 g/m*3 6.9 C 4.8 km/h
752 24-11-2020 14:35:00 6.8 C 6.81 g/m*3 6.8 C 4.8 km/h
753 24-11-2020 14:40:00 6.8 C 6.81 g/m*3 5.67 C 6.4 km/h
754 24-11-2020 14:45:00 6.7 C 6.76 g/m*3 4.75 C 9.7 km/h
755 24-11-2020 14:50:00 6.7 C 6.76 g/m*3 6.7 C 4.8 km/h
756 24-11-2020 14:55:00 6.6 C 6.72 g/m*3 6.6 C 3.2 km/h
757 24-11-2020 15:00:00 6.6 C 6.72 g/m*3 4.99 C 8.1 km/h
758 24-11-2020 15:05:00 6.6 C 6.72 g/m*3 6.6 C 3.2 km/h
759 24-11-2020 15:10:00 6.6 C 6.79 g/m*3 6.6 C 3.2 km/h
760 24-11-2020 15:15:00 6.6 C 6.79 g/m*3 6.6 C 4.8 km/h
761 24-11-2020 15:20:00 6.6 C 6.79 g/m*3 6.6 C 4.8 km/h
762 24-11-2020 15:25:00 6.6 C 6.79 g/m*3 6.6 C 3.2 km/h
763 24-11-2020 15:30:00 6.6 C 6.79 g/m*3 6.6 C 3.2 km/h
764 24-11-2020 15:35:00 6.5 C 6.75 g/m*3 5.33 C 6.4 km/h
765 24-11-2020 15:40:00 6.4 C 6.71 g/m*3 6.4 C 4.8 km/h
766 24-11-2020 15:45:00 6.4 C 6.71 g/m*3 6.4 C 1.6 km/h
767 24-11-2020 15:50:00 6.4 C 6.71 g/m*3 6.4 C 0 km/h
768 24-11-2020 15:55:00 6.4 C 6.71 g/m*3 6.4 C 4.8 km/h
769 24-11-2020 16:00:00 6.4 C 6.71 g/m*3 6.4 C 0 km/h
770 24-11-2020 16:05:00 6.4 C 6.71 g/m*3 6.4 C 3.2 km/h
771 24-11-2020 16:10:00 6.4 C 6.71 g/m*3 6.4 C 0 km/h
772 24-11-2020 16:15:00 6.4 C 6.71 g/m*3 6.4 C 0 km/h
773 24-11-2020 16:20:00 6.5 C 6.75 g/m*3 6.5 C 1.6 km/h
774 24-11-2020 16:25:00 6.5 C 6.75 g/m*3 6.5 C 1.6 km/h
775 24-11-2020 16:30:00 6.5 C 6.75 g/m*3 6.5 C 1.6 km/h
Sensor: Nr:Datum:Temp:Abs-Feuchte:Windchill:Wind:
Aussen-T/F 776 24-11-2020 16:35:00 6.5 C 6.75 g/m*3 6.5 C 0 km/h
777 24-11-2020 16:40:00 6.5 C 6.75 g/m*3 6.5 C 0 km/h
778 24-11-2020 16:45:00 6.5 C 6.75 g/m*3 6.5 C 0 km/h
779 24-11-2020 16:50:00 6.5 C 6.75 g/m*3 6.5 C 0 km/h
780 24-11-2020 16:55:00 6.5 C 6.75 g/m*3 6.5 C 4.8 km/h
781 24-11-2020 17:00:00 6.5 C 6.75 g/m*3 6.5 C 1.6 km/h
782 24-11-2020 17:05:00 6.5 C 6.75 g/m*3 6.5 C 0 km/h
783 24-11-2020 17:10:00 6.5 C 6.75 g/m*3 6.5 C 0 km/h
784 24-11-2020 17:15:00 6.6 C 6.79 g/m*3 6.6 C 0 km/h
785 24-11-2020 17:20:00 6.5 C 6.75 g/m*3 6.5 C 0 km/h
786 24-11-2020 17:25:00 6.6 C 6.79 g/m*3 6.6 C 0 km/h
787 24-11-2020 17:30:00 6.6 C 6.79 g/m*3 6.6 C 0 km/h
788 24-11-2020 17:35:00 6.5 C 6.75 g/m*3 5.33 C 6.4 km/h
789 24-11-2020 17:40:00 6.5 C 6.75 g/m*3 6.5 C 1.6 km/h
790 24-11-2020 17:45:00 6.5 C 6.75 g/m*3 6.5 C 1.6 km/h
791 24-11-2020 17:50:00 6.5 C 6.75 g/m*3 6.5 C 1.6 km/h
792 24-11-2020 17:55:00 6.4 C 6.71 g/m*3 6.4 C 0 km/h
793 24-11-2020 18:00:00 6.4 C 6.71 g/m*3 6.4 C 3.2 km/h
794 24-11-2020 18:05:00 6.4 C 6.71 g/m*3 6.4 C 1.6 km/h
795 24-11-2020 18:10:00 6.4 C 6.71 g/m*3 6.4 C 1.6 km/h
796 24-11-2020 18:15:00 6.4 C 6.71 g/m*3 6.4 C 4.8 km/h
797 24-11-2020 18:20:00 6.4 C 6.71 g/m*3 6.4 C 3.2 km/h
798 24-11-2020 18:25:00 6.4 C 6.71 g/m*3 6.4 C 1.6 km/h
799 24-11-2020 18:30:00 6.4 C 6.71 g/m*3 6.4 C 0 km/h
800 24-11-2020 18:35:00 6.4 C 6.71 g/m*3 6.4 C 0 km/h
Sensor: Nr:Datum:Temp:Abs-Feuchte:Windchill:Wind:
Aussen-T/F 801 24-11-2020 18:40:00 6.4 C 6.71 g/m*3 6.4 C 0 km/h
802 24-11-2020 18:45:00 6.4 C 6.71 g/m*3 6.4 C 0 km/h
803 24-11-2020 18:50:00 6.4 C 6.71 g/m*3 6.4 C 0 km/h
804 24-11-2020 18:55:00 6.4 C 6.71 g/m*3 6.4 C 0 km/h
805 24-11-2020 19:00:00 6.4 C 6.71 g/m*3 6.4 C 0 km/h
806 24-11-2020 19:05:00 6.4 C 6.71 g/m*3 6.4 C 3.2 km/h
807 24-11-2020 19:10:00 6.4 C 6.71 g/m*3 6.4 C 0 km/h
808 24-11-2020 19:15:00 6.4 C 6.71 g/m*3 6.4 C 0 km/h
809 24-11-2020 19:20:00 6.4 C 6.71 g/m*3 6.4 C 0 km/h
810 24-11-2020 19:25:00 6.4 C 6.71 g/m*3 6.4 C 0 km/h
811 24-11-2020 19:30:00 6.4 C 6.71 g/m*3 6.4 C 1.6 km/h
812 24-11-2020 19:35:00 6.4 C 6.71 g/m*3 6.4 C 0 km/h
813 24-11-2020 19:40:00 6.4 C 6.78 g/m*3 6.4 C 0 km/h
814 24-11-2020 19:45:00 6.4 C 6.78 g/m*3 6.4 C 0 km/h
815 24-11-2020 19:50:00 6.4 C 6.78 g/m*3 6.4 C 0 km/h
816 24-11-2020 19:55:00 6.4 C 6.78 g/m*3 6.4 C 1.6 km/h
817 24-11-2020 20:00:00 6.4 C 6.78 g/m*3 6.4 C 0 km/h
818 24-11-2020 20:05:00 6.4 C 6.78 g/m*3 6.4 C 1.6 km/h
819 24-11-2020 20:10:00 6.4 C 6.78 g/m*3 6.4 C 1.6 km/h
820 24-11-2020 20:15:00 6.4 C 6.78 g/m*3 6.4 C 0 km/h
821 24-11-2020 20:20:00 6.4 C 6.78 g/m*3 6.4 C 0 km/h
822 24-11-2020 20:25:00 6.4 C 6.78 g/m*3 6.4 C 0 km/h
823 24-11-2020 20:30:00 6.4 C 6.78 g/m*3 6.4 C 0 km/h
824 24-11-2020 20:35:00 6.4 C 6.78 g/m*3 6.4 C 0 km/h
825 24-11-2020 20:40:00 6.4 C 6.78 g/m*3 6.4 C 0 km/h
Sensor: Nr:Datum:Temp:Abs-Feuchte:Windchill:Wind:
Aussen-T/F 826 24-11-2020 20:45:00 6.4 C 6.78 g/m*3 6.4 C 0 km/h
827 24-11-2020 20:50:00 6.4 C 6.78 g/m*3 6.4 C 0 km/h
828 24-11-2020 20:55:00 6.4 C 6.78 g/m*3 6.4 C 0 km/h
829 24-11-2020 21:00:00 6.4 C 6.78 g/m*3 6.4 C 0 km/h
830 24-11-2020 21:05:00 6.4 C 6.78 g/m*3 6.4 C 0 km/h
831 24-11-2020 21:10:00 6.4 C 6.78 g/m*3 6.4 C 0 km/h
832 24-11-2020 21:15:00 6.4 C 6.78 g/m*3 6.4 C 0 km/h
833 24-11-2020 21:20:00 6.4 C 6.78 g/m*3 6.4 C 0 km/h
834 24-11-2020 21:25:00 6.4 C 6.78 g/m*3 6.4 C 0 km/h
835 24-11-2020 21:30:00 6.4 C 6.78 g/m*3 6.4 C 0 km/h
836 24-11-2020 21:35:00 6.4 C 6.78 g/m*3 6.4 C 0 km/h
837 24-11-2020 21:40:00 6.3 C 6.74 g/m*3 6.3 C 0 km/h
838 24-11-2020 21:45:00 6.4 C 6.78 g/m*3 6.4 C 0 km/h
839 24-11-2020 21:50:00 6.3 C 6.74 g/m*3 6.3 C 0 km/h
840 24-11-2020 21:55:00 6.3 C 6.74 g/m*3 6.3 C 0 km/h
841 24-11-2020 22:00:00 6.3 C 6.74 g/m*3 6.3 C 0 km/h
842 24-11-2020 22:05:00 6.3 C 6.74 g/m*3 6.3 C 0 km/h
843 24-11-2020 22:10:00 6.3 C 6.74 g/m*3 6.3 C 0 km/h
844 24-11-2020 22:15:00 6.3 C 6.74 g/m*3 6.3 C 0 km/h
845 24-11-2020 22:20:00 6.3 C 6.74 g/m*3 6.3 C 0 km/h
846 24-11-2020 22:25:00 6.3 C 6.74 g/m*3 6.3 C 0 km/h
847 24-11-2020 22:30:00 6.3 C 6.74 g/m*3 6.3 C 0 km/h
848 24-11-2020 22:35:00 6.3 C 6.74 g/m*3 6.3 C 0 km/h
849 24-11-2020 22:40:00 6.3 C 6.74 g/m*3 6.3 C 0 km/h
850 24-11-2020 22:45:00 6.3 C 6.81 g/m*3 6.3 C 0 km/h
Sensor: Nr:Datum:Temp:Abs-Feuchte:Windchill:Wind:
Aussen-T/F 851 24-11-2020 22:50:00 6.3 C 6.81 g/m*3 6.3 C 0 km/h
852 24-11-2020 22:55:00 6.3 C 6.81 g/m*3 6.3 C 0 km/h
853 24-11-2020 23:00:00 6.3 C 6.81 g/m*3 6.3 C 0 km/h
854 24-11-2020 23:05:00 6.3 C 6.81 g/m*3 6.3 C 0 km/h
855 24-11-2020 23:10:00 6.3 C 6.81 g/m*3 6.3 C 0 km/h
856 24-11-2020 23:15:00 6.2 C 6.69 g/m*3 6.2 C 0 km/h
857 24-11-2020 23:20:00 6.2 C 6.69 g/m*3 6.2 C 0 km/h
858 24-11-2020 23:25:00 6.2 C 6.69 g/m*3 6.2 C 0 km/h
859 24-11-2020 23:30:00 6.3 C 6.74 g/m*3 6.3 C 0 km/h
860 24-11-2020 23:35:00 6.3 C 6.74 g/m*3 6.3 C 1.6 km/h
861 24-11-2020 23:40:00 6.3 C 6.66 g/m*3 6.3 C 1.6 km/h
862 24-11-2020 23:45:00 6.3 C 6.66 g/m*3 6.3 C 0 km/h
863 24-11-2020 23:50:00 6.3 C 6.66 g/m*3 6.3 C 0 km/h
864 24-11-2020 23:55:00 6.3 C 6.66 g/m*3 6.3 C 0 km/h
865 25-11-2020 00:00:00 6.3 C 6.66 g/m*3 6.3 C 0 km/h
866 25-11-2020 00:05:00 6.3 C 6.66 g/m*3 6.3 C 0 km/h
867 25-11-2020 00:10:00 6.3 C 6.66 g/m*3 6.3 C 0 km/h
868 25-11-2020 00:15:00 6.3 C 6.66 g/m*3 6.3 C 0 km/h
869 25-11-2020 00:20:00 6.3 C 6.66 g/m*3 6.3 C 0 km/h
870 25-11-2020 00:25:00 6.3 C 6.66 g/m*3 6.3 C 0 km/h
871 25-11-2020 00:30:00 6.3 C 6.66 g/m*3 6.3 C 0 km/h
872 25-11-2020 00:35:00 6.3 C 6.66 g/m*3 6.3 C 0 km/h
873 25-11-2020 00:40:00 6.3 C 6.66 g/m*3 6.3 C 0 km/h
874 25-11-2020 00:45:00 6.3 C 6.66 g/m*3 6.3 C 0 km/h
875 25-11-2020 00:50:00 6.2 C 6.62 g/m*3 6.2 C 4.8 km/h
Sensor: Nr:Datum:Temp:Abs-Feuchte:Windchill:Wind:
Aussen-T/F 876 25-11-2020 00:55:00 6.2 C 6.62 g/m*3 6.2 C 0 km/h
877 25-11-2020 01:00:00 6.2 C 6.62 g/m*3 6.2 C 0 km/h
878 25-11-2020 01:05:00 6.2 C 6.62 g/m*3 6.2 C 0 km/h
879 25-11-2020 01:10:00 6.2 C 6.62 g/m*3 6.2 C 0 km/h
880 25-11-2020 01:15:00 6.2 C 6.62 g/m*3 6.2 C 0 km/h
881 25-11-2020 01:20:00 6.2 C 6.62 g/m*3 6.2 C 0 km/h
882 25-11-2020 01:25:00 6.2 C 6.62 g/m*3 6.2 C 0 km/h
883 25-11-2020 01:30:00 6.2 C 6.62 g/m*3 6.2 C 0 km/h
884 25-11-2020 01:35:00 6.2 C 6.62 g/m*3 6.2 C 0 km/h
885 25-11-2020 01:40:00 6.2 C 6.62 g/m*3 6.2 C 0 km/h
886 25-11-2020 01:45:00 6.1 C 6.58 g/m*3 6.1 C 0 km/h
887 25-11-2020 01:50:00 6.1 C 6.58 g/m*3 6.1 C 0 km/h
888 25-11-2020 01:55:00 6.1 C 6.58 g/m*3 6.1 C 0 km/h
889 25-11-2020 02:00:00 6.1 C 6.58 g/m*3 6.1 C 0 km/h
890 25-11-2020 02:05:00 6.1 C 6.58 g/m*3 6.1 C 0 km/h
891 25-11-2020 02:10:00 6.1 C 6.58 g/m*3 6.1 C 0 km/h
892 25-11-2020 02:15:00 6.1 C 6.58 g/m*3 6.1 C 0 km/h
893 25-11-2020 02:20:00 6.1 C 6.58 g/m*3 6.1 C 0 km/h
894 25-11-2020 02:25:00 6.1 C 6.58 g/m*3 6.1 C 1.6 km/h
895 25-11-2020 02:30:00 6 C 6.53 g/m*3 6 C 1.6 km/h
896 25-11-2020 02:35:00 6.1 C 6.58 g/m*3 6.1 C 0 km/h
897 25-11-2020 02:40:00 6.1 C 6.58 g/m*3 6.1 C 0 km/h
898 25-11-2020 02:45:00 6 C 6.53 g/m*3 6 C 0 km/h
899 25-11-2020 02:50:00 6 C 6.53 g/m*3 6 C 0 km/h
900 25-11-2020 02:55:00 5.9 C 6.49 g/m*3 5.9 C 0 km/h
Sensor: Nr:Datum:Temp:Abs-Feuchte:Windchill:Wind:
Aussen-T/F 901 25-11-2020 03:00:00 5.9 C 6.49 g/m*3 5.9 C 4.8 km/h
902 25-11-2020 03:05:00 5.9 C 6.49 g/m*3 5.9 C 0 km/h
903 25-11-2020 03:10:00 5.9 C 6.49 g/m*3 5.9 C 0 km/h
904 25-11-2020 03:15:00 5.9 C 6.56 g/m*3 5.9 C 0 km/h
905 25-11-2020 03:20:00 5.9 C 6.49 g/m*3 5.9 C 0 km/h
906 25-11-2020 03:25:00 5.9 C 6.56 g/m*3 5.9 C 0 km/h
907 25-11-2020 03:30:00 5.8 C 6.52 g/m*3 5.8 C 0 km/h
908 25-11-2020 03:35:00 5.8 C 6.52 g/m*3 5.8 C 0 km/h
909 25-11-2020 03:40:00 5.8 C 6.52 g/m*3 5.8 C 0 km/h
910 25-11-2020 03:45:00 5.8 C 6.52 g/m*3 5.8 C 1.6 km/h
911 25-11-2020 03:50:00 5.8 C 6.52 g/m*3 5.8 C 0 km/h
912 25-11-2020 03:55:00 5.8 C 6.52 g/m*3 5.8 C 0 km/h
913 25-11-2020 04:00:00 5.7 C 6.48 g/m*3 5.7 C 0 km/h
914 25-11-2020 04:05:00 5.7 C 6.48 g/m*3 5.7 C 0 km/h
915 25-11-2020 04:10:00 5.7 C 6.48 g/m*3 5.7 C 0 km/h
916 25-11-2020 04:15:00 5.7 C 6.48 g/m*3 5.7 C 0 km/h
917 25-11-2020 04:20:00 5.6 C 6.43 g/m*3 5.6 C 0 km/h
918 25-11-2020 04:25:00 5.6 C 6.43 g/m*3 5.6 C 0 km/h
919 25-11-2020 04:30:00 5.6 C 6.5 g/m*3 5.6 C 3.2 km/h
920 25-11-2020 04:35:00 5.5 C 6.39 g/m*3 5.5 C 0 km/h
921 25-11-2020 04:40:00 5.4 C 6.35 g/m*3 5.4 C 0 km/h
922 25-11-2020 04:45:00 5.4 C 6.35 g/m*3 5.4 C 0 km/h
923 25-11-2020 04:50:00 5.3 C 6.31 g/m*3 5.3 C 0 km/h
924 25-11-2020 04:55:00 5.2 C 6.27 g/m*3 5.2 C 1.6 km/h
925 25-11-2020 05:00:00 5.1 C 6.22 g/m*3 5.1 C 0 km/h
Sensor: Nr:Datum:Temp:Abs-Feuchte:Windchill:Wind:
Aussen-T/F 926 25-11-2020 05:05:00 4.9 C 6.14 g/m*3 4.9 C 0 km/h
927 25-11-2020 05:10:00 4.8 C 6.1 g/m*3 4.8 C 1.6 km/h
928 25-11-2020 05:15:00 4.7 C 6.06 g/m*3 4.7 C 0 km/h
929 25-11-2020 05:20:00 4.6 C 6.02 g/m*3 4.6 C 0 km/h
930 25-11-2020 05:25:00 4.4 C 6.01 g/m*3 4.4 C 0 km/h
931 25-11-2020 05:30:00 4.3 C 5.97 g/m*3 4.3 C 0 km/h
932 25-11-2020 05:35:00 4.2 C 5.93 g/m*3 4.2 C 0 km/h
933 25-11-2020 05:40:00 4.1 C 5.89 g/m*3 4.1 C 1.6 km/h
934 25-11-2020 05:45:00 4 C 5.85 g/m*3 4 C 3.2 km/h
935 25-11-2020 05:50:00 3.9 C 5.81 g/m*3 3.9 C 1.6 km/h
936 25-11-2020 05:55:00 3.8 C 5.83 g/m*3 3.8 C 0 km/h
937 25-11-2020 06:00:00 3.8 C 5.83 g/m*3 3.8 C 0 km/h
938 25-11-2020 06:05:00 3.7 C 5.8 g/m*3 3.7 C 1.6 km/h
939 25-11-2020 06:10:00 3.7 C 5.8 g/m*3 3.7 C 3.2 km/h
940 25-11-2020 06:15:00 3.6 C 5.76 g/m*3 3.6 C 1.6 km/h
941 25-11-2020 06:20:00 3.6 C 5.76 g/m*3 3.6 C 3.2 km/h
942 25-11-2020 06:25:00 3.4 C 5.68 g/m*3 3.4 C 3.2 km/h
943 25-11-2020 06:30:00 3.3 C 5.64 g/m*3 3.3 C 1.6 km/h
944 25-11-2020 06:35:00 3.3 C 5.7 g/m*3 3.3 C 0 km/h
945 25-11-2020 06:40:00 3.3 C 5.7 g/m*3 3.3 C 3.2 km/h
946 25-11-2020 06:45:00 3.2 C 5.66 g/m*3 3.2 C 0 km/h
947 25-11-2020 06:50:00 3.2 C 5.66 g/m*3 3.2 C 0 km/h
948 25-11-2020 06:55:00 3.1 C 5.63 g/m*3 3.1 C 0 km/h
949 25-11-2020 07:00:00 3.1 C 5.63 g/m*3 3.1 C 3.2 km/h
950 25-11-2020 07:05:00 3 C 5.59 g/m*3 3 C 1.6 km/h
Sensor: Nr:Datum:Temp:Abs-Feuchte:Windchill:Wind:
Aussen-T/F 951 25-11-2020 07:10:00 2.9 C 5.55 g/m*3 2.9 C 1.6 km/h
952 25-11-2020 07:15:00 2.8 C 5.51 g/m*3 2.8 C 1.6 km/h
953 25-11-2020 07:20:00 2.8 C 5.51 g/m*3 2.8 C 0 km/h
954 25-11-2020 07:25:00 2.7 C 5.48 g/m*3 2.7 C 0 km/h
955 25-11-2020 07:30:00 2.7 C 5.48 g/m*3 2.7 C 0 km/h
956 25-11-2020 07:35:00 2.7 C 5.48 g/m*3 2.7 C 0 km/h
957 25-11-2020 07:40:00 2.7 C 5.54 g/m*3 2.7 C 0 km/h
958 25-11-2020 07:45:00 2.7 C 5.54 g/m*3 2.7 C 0 km/h
959 25-11-2020 07:50:00 2.7 C 5.54 g/m*3 2.7 C 0 km/h
960 25-11-2020 07:55:00 2.6 C 5.5 g/m*3 2.6 C 0 km/h
961 25-11-2020 08:00:00 2.6 C 5.5 g/m*3 2.6 C 0 km/h
962 25-11-2020 08:05:00 2.6 C 5.5 g/m*3 2.6 C 0 km/h
963 25-11-2020 08:10:00 2.6 C 5.5 g/m*3 2.6 C 0 km/h
964 25-11-2020 08:15:00 2.6 C 5.5 g/m*3 2.6 C 0 km/h
965 25-11-2020 08:20:00 2.5 C 5.46 g/m*3 2.5 C 0 km/h
966 25-11-2020 08:25:00 2.5 C 5.46 g/m*3 2.5 C 0 km/h
967 25-11-2020 08:30:00 2.4 C 5.42 g/m*3 2.4 C 0 km/h
968 25-11-2020 08:35:00 2.5 C 5.46 g/m*3 2.5 C 0 km/h
969 25-11-2020 08:40:00 2.5 C 5.46 g/m*3 2.5 C 0 km/h
970 25-11-2020 08:45:00 2.5 C 5.46 g/m*3 2.5 C 0 km/h
971 25-11-2020 08:50:00 2.6 C 5.5 g/m*3 2.6 C 0 km/h
972 25-11-2020 08:55:00 2.6 C 5.5 g/m*3 2.6 C 0 km/h
973 25-11-2020 09:00:00 2.6 C 5.5 g/m*3 2.6 C 0 km/h
974 25-11-2020 09:05:00 2.7 C 5.54 g/m*3 2.7 C 0 km/h
975 25-11-2020 09:10:00 2.7 C 5.54 g/m*3 2.7 C 0 km/h
Sensor: Nr:Datum:Temp:Abs-Feuchte:Windchill:Wind:
Aussen-T/F 976 25-11-2020 09:15:00 2.8 C 5.57 g/m*3 2.8 C 0 km/h
977 25-11-2020 09:20:00 2.8 C 5.63 g/m*3 2.8 C 0 km/h
978 25-11-2020 09:25:00 2.9 C 5.67 g/m*3 2.9 C 0 km/h
979 25-11-2020 09:30:00 2.9 C 5.67 g/m*3 2.9 C 0 km/h
980 25-11-2020 09:35:00 3 C 5.71 g/m*3 3 C 0 km/h
981 25-11-2020 09:40:00 3.1 C 5.75 g/m*3 3.1 C 0 km/h
982 25-11-2020 09:45:00 3.2 C 5.79 g/m*3 3.2 C 0 km/h
983 25-11-2020 09:50:00 3.2 C 5.79 g/m*3 3.2 C 0 km/h
984 25-11-2020 09:55:00 3.3 C 5.82 g/m*3 3.3 C 0 km/h
985 25-11-2020 10:00:00 3.3 C 5.82 g/m*3 3.3 C 0 km/h
986 25-11-2020 10:05:00 3.4 C 5.86 g/m*3 3.4 C 0 km/h
987 25-11-2020 10:10:00 3.5 C 5.9 g/m*3 3.5 C 0 km/h
988 25-11-2020 10:15:00 3.6 C 5.94 g/m*3 3.6 C 0 km/h
989 25-11-2020 10:20:00 3.7 C 5.98 g/m*3 3.7 C 0 km/h
990 25-11-2020 10:25:00 3.8 C 6.02 g/m*3 3.8 C 0 km/h
991 25-11-2020 10:30:00 4 C 6.1 g/m*3 4 C 0 km/h
992 25-11-2020 10:35:00 4.2 C 6.25 g/m*3 4.2 C 0 km/h
993 25-11-2020 10:40:00 4.4 C 6.27 g/m*3 4.4 C 0 km/h
994 25-11-2020 10:45:00 4.6 C 6.42 g/m*3 4.6 C 0 km/h
995 25-11-2020 10:50:00 4.8 C 6.5 g/m*3 4.8 C 0 km/h
996 25-11-2020 10:55:00 5 C 6.59 g/m*3 5 C 0 km/h
997 25-11-2020 11:00:00 5.2 C 6.68 g/m*3 5.2 C 0 km/h
998 25-11-2020 11:05:00 5.3 C 6.72 g/m*3 5.3 C 0 km/h
999 25-11-2020 11:10:00 5.4 C 6.77 g/m*3 5.4 C 0 km/h
1000 25-11-2020 11:15:00 5.6 C 6.86 g/m*3 5.6 C 0 km/h
Sensor: Nr:Datum:Temp:Abs-Feuchte:Windchill:Wind:
Aussen-T/F 1001 25-11-2020 11:20:00 5.6 C 6.86 g/m*3 5.6 C 0 km/h
1002 25-11-2020 11:25:00 5.7 C 6.83 g/m*3 5.7 C 0 km/h
1003 25-11-2020 11:30:00 5.7 C 6.83 g/m*3 5.7 C 0 km/h
1004 25-11-2020 11:35:00 5.7 C 6.83 g/m*3 5.7 C 0 km/h
1005 25-11-2020 11:40:00 5.7 C 6.83 g/m*3 5.7 C 0 km/h
1006 25-11-2020 11:45:00 5.7 C 6.83 g/m*3 5.7 C 0 km/h
1007 25-11-2020 11:50:00 5.7 C 6.83 g/m*3 5.7 C 4.8 km/h
1008 25-11-2020 11:55:00 5.7 C 6.76 g/m*3 5.7 C 0 km/h
1009 25-11-2020 12:00:00 5.7 C 6.76 g/m*3 5.7 C 0 km/h
1010 25-11-2020 12:05:00 5.7 C 6.76 g/m*3 5.7 C 0 km/h
1011 25-11-2020 12:10:00 5.7 C 6.76 g/m*3 5.7 C 0 km/h
1012 25-11-2020 12:15:00 5.7 C 6.76 g/m*3 5.7 C 1.6 km/h
1013 25-11-2020 12:20:00 5.7 C 6.76 g/m*3 5.7 C 0 km/h
1014 25-11-2020 12:25:00 5.7 C 6.76 g/m*3 5.7 C 0 km/h
1015 25-11-2020 12:30:00 5.7 C 6.76 g/m*3 5.7 C 0 km/h
1016 25-11-2020 12:35:00 5.7 C 6.76 g/m*3 5.7 C 0 km/h
1017 25-11-2020 12:40:00 5.8 C 6.81 g/m*3 5.8 C 0 km/h
1018 25-11-2020 12:45:00 5.8 C 6.81 g/m*3 5.8 C 1.6 km/h
1019 25-11-2020 12:50:00 5.9 C 6.85 g/m*3 5.9 C 0 km/h
1020 25-11-2020 12:55:00 5.9 C 6.85 g/m*3 5.9 C 0 km/h
1021 25-11-2020 13:00:00 6 C 6.9 g/m*3 6 C 0 km/h
1022 25-11-2020 13:05:00 6 C 6.9 g/m*3 6 C 0 km/h
1023 25-11-2020 13:10:00 6.1 C 6.94 g/m*3 6.1 C 0 km/h
1024 25-11-2020 13:15:00 6.1 C 6.94 g/m*3 6.1 C 1.6 km/h
1025 25-11-2020 13:20:00 6.1 C 6.94 g/m*3 6.1 C 0 km/h
Sensor: Nr:Datum:Temp:Abs-Feuchte:Windchill:Wind:
Aussen-T/F 1026 25-11-2020 13:25:00 6.2 C 6.99 g/m*3 6.2 C 1.6 km/h
1027 25-11-2020 13:30:00 6.2 C 6.99 g/m*3 6.2 C 3.2 km/h
1028 25-11-2020 13:35:00 6.3 C 7.03 g/m*3 6.3 C 0 km/h
1029 25-11-2020 13:40:00 6.3 C 7.03 g/m*3 6.3 C 3.2 km/h
1030 25-11-2020 13:45:00 6.3 C 7.03 g/m*3 6.3 C 1.6 km/h
1031 25-11-2020 13:50:00 6.4 C 7 g/m*3 6.4 C 1.6 km/h
1032 25-11-2020 13:55:00 6.5 C 7.05 g/m*3 6.5 C 0 km/h
1033 25-11-2020 14:00:00 6.5 C 7.05 g/m*3 6.5 C 0 km/h
1034 25-11-2020 14:05:00 6.6 C 7.1 g/m*3 6.6 C 0 km/h
1035 25-11-2020 14:10:00 6.7 C 7.14 g/m*3 6.7 C 1.6 km/h
1036 25-11-2020 14:15:00 6.7 C 7.14 g/m*3 6.7 C 0 km/h
1037 25-11-2020 14:20:00 6.7 C 7.14 g/m*3 6.7 C 0 km/h
1038 25-11-2020 14:25:00 6.7 C 7.14 g/m*3 6.7 C 0 km/h
1039 25-11-2020 14:30:00 6.7 C 7.14 g/m*3 6.7 C 0 km/h
1040 25-11-2020 14:35:00 6.6 C 7.02 g/m*3 6.6 C 0 km/h
1041 25-11-2020 14:40:00 6.6 C 7.02 g/m*3 6.6 C 0 km/h
1042 25-11-2020 14:45:00 6.6 C 7.02 g/m*3 6.6 C 0 km/h
1043 25-11-2020 14:50:00 6.6 C 7.02 g/m*3 6.6 C 0 km/h
1044 25-11-2020 14:55:00 6.5 C 6.97 g/m*3 6.5 C 0 km/h
1045 25-11-2020 15:00:00 6.5 C 6.97 g/m*3 6.5 C 0 km/h
1046 25-11-2020 15:05:00 6.5 C 6.97 g/m*3 6.5 C 1.6 km/h
1047 25-11-2020 15:10:00 6.5 C 6.97 g/m*3 6.5 C 0 km/h
1048 25-11-2020 15:15:00 6.4 C 6.93 g/m*3 6.4 C 0 km/h
1049 25-11-2020 15:20:00 6.4 C 6.93 g/m*3 6.4 C 1.6 km/h
1050 25-11-2020 15:25:00 6.4 C 6.93 g/m*3 6.4 C 0 km/h
Sensor: Nr:Datum:Temp:Abs-Feuchte:Windchill:Wind:
Aussen-T/F 1051 25-11-2020 15:30:00 6.4 C 6.93 g/m*3 6.4 C 0 km/h
1052 25-11-2020 15:35:00 6.4 C 6.93 g/m*3 6.4 C 1.6 km/h
1053 25-11-2020 15:40:00 6.3 C 6.88 g/m*3 6.3 C 4.8 km/h
1054 25-11-2020 15:45:00 6.3 C 6.88 g/m*3 6.3 C 3.2 km/h
1055 25-11-2020 15:50:00 6.3 C 6.88 g/m*3 6.3 C 1.6 km/h
1056 25-11-2020 15:55:00 6.2 C 6.77 g/m*3 6.2 C 1.6 km/h
1057 25-11-2020 16:00:00 6.2 C 6.77 g/m*3 6.2 C 4.8 km/h
1058 25-11-2020 16:05:00 6.2 C 6.77 g/m*3 6.2 C 4.8 km/h
1059 25-11-2020 16:10:00 6.1 C 6.72 g/m*3 6.1 C 4.8 km/h
1060 25-11-2020 16:15:00 6 C 6.68 g/m*3 4.75 C 6.4 km/h
1061 25-11-2020 16:20:00 5.9 C 6.63 g/m*3 4.63 C 6.4 km/h
1062 25-11-2020 16:25:00 5.9 C 6.63 g/m*3 3.8 C 9.7 km/h
1063 25-11-2020 16:30:00 5.9 C 6.63 g/m*3 3.8 C 9.7 km/h
1064 25-11-2020 16:35:00 6 C 6.68 g/m*3 3.92 C 9.7 km/h
1065 25-11-2020 16:40:00 6.1 C 6.72 g/m*3 4.4 C 8.1 km/h
1066 25-11-2020 16:45:00 5.9 C 6.56 g/m*3 5.9 C 4.8 km/h
1067 25-11-2020 16:50:00 5.8 C 6.52 g/m*3 5.8 C 0 km/h
1068 25-11-2020 16:55:00 5.7 C 6.48 g/m*3 5.7 C 1.6 km/h
1069 25-11-2020 17:00:00 5.6 C 6.43 g/m*3 5.6 C 1.6 km/h
1070 25-11-2020 17:05:00 5.4 C 6.35 g/m*3 5.4 C 1.6 km/h
1071 25-11-2020 17:10:00 5.2 C 6.27 g/m*3 5.2 C 1.6 km/h
1072 25-11-2020 17:15:00 5.1 C 6.22 g/m*3 5.1 C 0 km/h
1073 25-11-2020 17:20:00 5.1 C 6.29 g/m*3 5.1 C 3.2 km/h
1074 25-11-2020 17:25:00 5 C 6.25 g/m*3 5 C 1.6 km/h
1075 25-11-2020 17:30:00 4.9 C 6.21 g/m*3 3.48 C 6.4 km/h
Sensor: Nr:Datum:Temp:Abs-Feuchte:Windchill:Wind:
Aussen-T/F 1076 25-11-2020 17:35:00 4.9 C 6.28 g/m*3 4.9 C 1.6 km/h
1077 25-11-2020 17:40:00 4.9 C 6.28 g/m*3 4.9 C 0 km/h
1078 25-11-2020 17:45:00 4.8 C 6.17 g/m*3 4.8 C 0 km/h
1079 25-11-2020 17:50:00 4.7 C 6.13 g/m*3 4.7 C 0 km/h
1080 25-11-2020 17:55:00 4.6 C 6.09 g/m*3 4.6 C 1.6 km/h
1081 25-11-2020 18:00:00 4.5 C 6.05 g/m*3 4.5 C 0 km/h
1082 25-11-2020 18:05:00 4.4 C 6.07 g/m*3 4.4 C 0 km/h
1083 25-11-2020 18:10:00 4.4 C 6.07 g/m*3 4.4 C 0 km/h
1084 25-11-2020 18:15:00 4.3 C 6.03 g/m*3 4.3 C 0 km/h
1085 25-11-2020 18:20:00 4.2 C 5.99 g/m*3 4.2 C 0 km/h
1086 25-11-2020 18:25:00 4.1 C 5.95 g/m*3 4.1 C 0 km/h
1087 25-11-2020 18:30:00 4.1 C 5.95 g/m*3 4.1 C 0 km/h
1088 25-11-2020 18:35:00 3.9 C 5.87 g/m*3 3.9 C 0 km/h
1089 25-11-2020 18:40:00 3.9 C 5.87 g/m*3 3.9 C 0 km/h
1090 25-11-2020 18:45:00 3.8 C 5.83 g/m*3 3.8 C 0 km/h
1091 25-11-2020 18:50:00 3.8 C 5.9 g/m*3 3.8 C 0 km/h
1092 25-11-2020 18:55:00 3.8 C 5.9 g/m*3 3.8 C 0 km/h
1093 25-11-2020 19:00:00 3.7 C 5.86 g/m*3 3.7 C 0 km/h
1094 25-11-2020 19:05:00 3.7 C 5.86 g/m*3 3.7 C 0 km/h
1095 25-11-2020 19:10:00 3.6 C 5.82 g/m*3 3.6 C 1.6 km/h
1096 25-11-2020 19:15:00 3.6 C 5.82 g/m*3 3.6 C 0 km/h
1097 25-11-2020 19:20:00 3.4 C 5.74 g/m*3 3.4 C 0 km/h
1098 25-11-2020 19:25:00 3.4 C 5.74 g/m*3 3.4 C 0 km/h
1099 25-11-2020 19:30:00 3.4 C 5.74 g/m*3 3.4 C 0 km/h
1100 25-11-2020 19:35:00 3.4 C 5.74 g/m*3 3.4 C 0 km/h
Sensor: Nr:Datum:Temp:Abs-Feuchte:Windchill:Wind:
Aussen-T/F 1101 25-11-2020 19:40:00 3.4 C 5.74 g/m*3 3.4 C 0 km/h
1102 25-11-2020 19:45:00 3.4 C 5.74 g/m*3 3.4 C 0 km/h
1103 25-11-2020 19:50:00 3.4 C 5.74 g/m*3 3.4 C 0 km/h
1104 25-11-2020 19:55:00 3.4 C 5.8 g/m*3 3.4 C 0 km/h
1105 25-11-2020 20:00:00 3.3 C 5.76 g/m*3 3.3 C 0 km/h
1106 25-11-2020 20:05:00 3.3 C 5.76 g/m*3 3.3 C 1.6 km/h
1107 25-11-2020 20:10:00 3.3 C 5.76 g/m*3 3.3 C 0 km/h
1108 25-11-2020 20:15:00 3.3 C 5.76 g/m*3 3.3 C 0 km/h
1109 25-11-2020 20:20:00 3.3 C 5.76 g/m*3 3.3 C 0 km/h
1110 25-11-2020 20:25:00 3.2 C 5.72 g/m*3 3.2 C 0 km/h
1111 25-11-2020 20:30:00 3.2 C 5.72 g/m*3 3.2 C 0 km/h
1112 25-11-2020 20:35:00 3.1 C 5.69 g/m*3 3.1 C 0 km/h
1113 25-11-2020 20:40:00 3 C 5.65 g/m*3 3 C 0 km/h
1114 25-11-2020 20:45:00 2.9 C 5.61 g/m*3 2.9 C 0 km/h
1115 25-11-2020 20:50:00 2.9 C 5.61 g/m*3 2.9 C 0 km/h
1116 25-11-2020 20:55:00 2.8 C 5.57 g/m*3 2.8 C 4.8 km/h
1117 25-11-2020 21:00:00 2.8 C 5.57 g/m*3 2.8 C 3.2 km/h
1118 25-11-2020 21:05:00 2.8 C 5.57 g/m*3 2.8 C 1.6 km/h
1119 25-11-2020 21:10:00 2.8 C 5.57 g/m*3 2.8 C 1.6 km/h
1120 25-11-2020 21:15:00 2.7 C 5.54 g/m*3 2.7 C 0 km/h
1121 25-11-2020 21:20:00 2.6 C 5.5 g/m*3 2.6 C 0 km/h
1122 25-11-2020 21:25:00 2.5 C 5.46 g/m*3 2.5 C 1.6 km/h
1123 25-11-2020 21:30:00 2.4 C 5.42 g/m*3 2.4 C 0 km/h
1124 25-11-2020 21:35:00 2.3 C 5.39 g/m*3 2.3 C 0 km/h
1125 25-11-2020 21:40:00 2.2 C 5.35 g/m*3 2.2 C 0 km/h
Sensor: Nr:Datum:Temp:Abs-Feuchte:Windchill:Wind:
Aussen-T/F 1126 25-11-2020 21:45:00 2.2 C 5.35 g/m*3 2.2 C 0 km/h
1127 25-11-2020 21:50:00 2.2 C 5.35 g/m*3 2.2 C 0 km/h
1128 25-11-2020 21:55:00 2.2 C 5.35 g/m*3 2.2 C 0 km/h
1129 25-11-2020 22:00:00 2.2 C 5.35 g/m*3 2.2 C 0 km/h
1130 25-11-2020 22:05:00 2.2 C 5.35 g/m*3 2.2 C 0 km/h
1131 25-11-2020 22:10:00 2.2 C 5.35 g/m*3 2.2 C 0 km/h
1132 25-11-2020 22:15:00 2.2 C 5.35 g/m*3 2.2 C 0 km/h
1133 25-11-2020 22:20:00 2.1 C 5.31 g/m*3 2.1 C 0 km/h
1134 25-11-2020 22:25:00 2.1 C 5.31 g/m*3 2.1 C 0 km/h
1135 25-11-2020 22:30:00 2.1 C 5.31 g/m*3 2.1 C 0 km/h
1136 25-11-2020 22:35:00 2.1 C 5.37 g/m*3 2.1 C 0 km/h
1137 25-11-2020 22:40:00 2.1 C 5.31 g/m*3 2.1 C 0 km/h
1138 25-11-2020 22:45:00 2.1 C 5.31 g/m*3 2.1 C 0 km/h
1139 25-11-2020 22:50:00 2.1 C 5.31 g/m*3 2.1 C 0 km/h
1140 25-11-2020 22:55:00 2.1 C 5.31 g/m*3 2.1 C 0 km/h
1141 25-11-2020 23:00:00 2.1 C 5.37 g/m*3 2.1 C 0 km/h
1142 25-11-2020 23:05:00 2.1 C 5.37 g/m*3 2.1 C 0 km/h
1143 25-11-2020 23:10:00 2.1 C 5.37 g/m*3 2.1 C 3.2 km/h
1144 25-11-2020 23:15:00 2 C 5.33 g/m*3 2 C 1.6 km/h
1145 25-11-2020 23:20:00 1.9 C 5.3 g/m*3 1.9 C 0 km/h
1146 25-11-2020 23:25:00 1.9 C 5.3 g/m*3 1.9 C 0 km/h
1147 25-11-2020 23:30:00 1.8 C 5.21 g/m*3 1.8 C 0 km/h
1148 25-11-2020 23:35:00 1.7 C 5.17 g/m*3 1.7 C 0 km/h
1149 25-11-2020 23:40:00 1.7 C 5.17 g/m*3 1.7 C 0 km/h
1150 25-11-2020 23:45:00 1.7 C 5.23 g/m*3 1.7 C 0 km/h
Sensor: Nr:Datum:Temp:Abs-Feuchte:Windchill:Wind:
Aussen-T/F 1151 25-11-2020 23:50:00 1.7 C 5.23 g/m*3 1.7 C 0 km/h
1152 25-11-2020 23:55:00 1.7 C 5.23 g/m*3 1.7 C 0 km/h
1153 26-11-2020 00:00:00 1.6 C 5.19 g/m*3 1.6 C 0 km/h
1154 26-11-2020 00:05:00 1.6 C 5.19 g/m*3 1.6 C 0 km/h
1155 26-11-2020 00:10:00 1.6 C 5.19 g/m*3 1.6 C 0 km/h
1156 26-11-2020 00:15:00 1.6 C 5.19 g/m*3 1.6 C 0 km/h
1157 26-11-2020 00:20:00 1.6 C 5.19 g/m*3 1.6 C 0 km/h
1158 26-11-2020 00:25:00 1.6 C 5.19 g/m*3 1.6 C 0 km/h
1159 26-11-2020 00:30:00 1.6 C 5.19 g/m*3 1.6 C 0 km/h
1160 26-11-2020 00:35:00 1.6 C 5.19 g/m*3 1.6 C 0 km/h
1161 26-11-2020 00:40:00 1.7 C 5.23 g/m*3 1.7 C 0 km/h
1162 26-11-2020 00:45:00 1.7 C 5.23 g/m*3 1.7 C 0 km/h
1163 26-11-2020 00:50:00 1.7 C 5.23 g/m*3 1.7 C 0 km/h
1164 26-11-2020 00:55:00 1.7 C 5.23 g/m*3 1.7 C 0 km/h
1165 26-11-2020 01:00:00 1.7 C 5.23 g/m*3 1.7 C 0 km/h
1166 26-11-2020 01:05:00 1.7 C 5.23 g/m*3 1.7 C 0 km/h
1167 26-11-2020 01:10:00 1.7 C 5.23 g/m*3 1.7 C 0 km/h
1168 26-11-2020 01:15:00 1.8 C 5.26 g/m*3 1.8 C 0 km/h
1169 26-11-2020 01:20:00 1.8 C 5.26 g/m*3 1.8 C 0 km/h
1170 26-11-2020 01:25:00 1.9 C 5.3 g/m*3 1.9 C 0 km/h
1171 26-11-2020 01:30:00 2 C 5.33 g/m*3 2 C 0 km/h
1172 26-11-2020 01:35:00 2.1 C 5.37 g/m*3 2.1 C 0 km/h
1173 26-11-2020 01:40:00 2.1 C 5.37 g/m*3 2.1 C 0 km/h
1174 26-11-2020 01:45:00 2.2 C 5.41 g/m*3 2.2 C 0 km/h
1175 26-11-2020 01:50:00 2.2 C 5.41 g/m*3 2.2 C 0 km/h
Sensor: Nr:Datum:Temp:Abs-Feuchte:Windchill:Wind:
Aussen-T/F 1176 26-11-2020 01:55:00 2.2 C 5.41 g/m*3 2.2 C 0 km/h
1177 26-11-2020 02:00:00 2.2 C 5.41 g/m*3 2.2 C 0 km/h
1178 26-11-2020 02:05:00 2.3 C 5.44 g/m*3 2.3 C 0 km/h
1179 26-11-2020 02:10:00 2.3 C 5.44 g/m*3 2.3 C 0 km/h
1180 26-11-2020 02:15:00 2.4 C 5.48 g/m*3 2.4 C 0 km/h
1181 26-11-2020 02:20:00 2.6 C 5.61 g/m*3 2.6 C 0 km/h
1182 26-11-2020 02:25:00 2.6 C 5.61 g/m*3 2.6 C 0 km/h
1183 26-11-2020 02:30:00 2.7 C 5.65 g/m*3 2.7 C 0 km/h
1184 26-11-2020 02:35:00 2.7 C 5.65 g/m*3 2.7 C 0 km/h
1185 26-11-2020 02:40:00 2.8 C 5.69 g/m*3 2.8 C 0 km/h
1186 26-11-2020 02:45:00 2.8 C 5.69 g/m*3 2.8 C 0 km/h
1187 26-11-2020 02:50:00 2.9 C 5.73 g/m*3 2.9 C 0 km/h
1188 26-11-2020 02:55:00 2.9 C 5.73 g/m*3 2.9 C 1.6 km/h
1189 26-11-2020 03:00:00 2.9 C 5.73 g/m*3 2.9 C 0 km/h
1190 26-11-2020 03:05:00 2.8 C 5.69 g/m*3 2.8 C 0 km/h
1191 26-11-2020 03:10:00 2.8 C 5.69 g/m*3 2.8 C 0 km/h
1192 26-11-2020 03:15:00 2.8 C 5.69 g/m*3 2.8 C 0 km/h
1193 26-11-2020 03:20:00 2.8 C 5.69 g/m*3 2.8 C 0 km/h
1194 26-11-2020 03:25:00 2.8 C 5.69 g/m*3 2.8 C 0 km/h
1195 26-11-2020 03:30:00 2.8 C 5.69 g/m*3 2.8 C 0 km/h
1196 26-11-2020 03:35:00 2.8 C 5.69 g/m*3 2.8 C 0 km/h
1197 26-11-2020 03:40:00 2.8 C 5.69 g/m*3 2.8 C 0 km/h
1198 26-11-2020 03:45:00 2.8 C 5.69 g/m*3 2.8 C 0 km/h
1199 26-11-2020 03:50:00 2.8 C 5.69 g/m*3 2.8 C 0 km/h
1200 26-11-2020 03:55:00 2.9 C 5.73 g/m*3 2.9 C 0 km/h
Sensor: Nr:Datum:Temp:Abs-Feuchte:Windchill:Wind:
Aussen-T/F 1201 26-11-2020 04:00:00 2.9 C 5.73 g/m*3 2.9 C 0 km/h
1202 26-11-2020 04:05:00 2.9 C 5.73 g/m*3 2.9 C 0 km/h
1203 26-11-2020 04:10:00 2.9 C 5.73 g/m*3 2.9 C 0 km/h
1204 26-11-2020 04:15:00 3 C 5.77 g/m*3 3 C 0 km/h
1205 26-11-2020 04:20:00 3 C 5.77 g/m*3 3 C 0 km/h
1206 26-11-2020 04:25:00 3.1 C 5.81 g/m*3 3.1 C 0 km/h
1207 26-11-2020 04:30:00 3.1 C 5.81 g/m*3 3.1 C 0 km/h
1208 26-11-2020 04:35:00 3.1 C 5.81 g/m*3 3.1 C 0 km/h
1209 26-11-2020 04:40:00 3.1 C 5.81 g/m*3 3.1 C 0 km/h
1210 26-11-2020 04:45:00 3.2 C 5.85 g/m*3 3.2 C 0 km/h
1211 26-11-2020 04:50:00 3.2 C 5.85 g/m*3 3.2 C 1.6 km/h
1212 26-11-2020 04:55:00 3.3 C 5.88 g/m*3 3.3 C 1.6 km/h
1213 26-11-2020 05:00:00 3.3 C 5.88 g/m*3 3.3 C 0 km/h
1214 26-11-2020 05:05:00 3.3 C 5.88 g/m*3 3.3 C 0 km/h
1215 26-11-2020 05:10:00 3.3 C 5.88 g/m*3 3.3 C 0 km/h
1216 26-11-2020 05:15:00 3.3 C 5.88 g/m*3 3.3 C 0 km/h
1217 26-11-2020 05:20:00 3.3 C 5.88 g/m*3 3.3 C 0 km/h
1218 26-11-2020 05:25:00 3.3 C 5.88 g/m*3 3.3 C 0 km/h
1219 26-11-2020 05:30:00 3.3 C 5.88 g/m*3 3.3 C 0 km/h
1220 26-11-2020 05:35:00 3.3 C 5.88 g/m*3 3.3 C 0 km/h
1221 26-11-2020 05:40:00 3.3 C 5.88 g/m*3 3.3 C 1.6 km/h
1222 26-11-2020 05:45:00 3.4 C 5.92 g/m*3 3.4 C 1.6 km/h
1223 26-11-2020 05:50:00 3.3 C 5.88 g/m*3 3.3 C 4.8 km/h
1224 26-11-2020 05:55:00 3.2 C 5.85 g/m*3 3.2 C 0 km/h
1225 26-11-2020 06:00:00 3.2 C 5.85 g/m*3 3.2 C 0 km/h
Sensor: Nr:Datum:Temp:Abs-Feuchte:Windchill:Wind:
Aussen-T/F 1226 26-11-2020 06:05:00 3.2 C 5.85 g/m*3 3.2 C 0 km/h
1227 26-11-2020 06:10:00 3.2 C 5.85 g/m*3 3.2 C 0 km/h
1228 26-11-2020 06:15:00 3.2 C 5.85 g/m*3 3.2 C 0 km/h
1229 26-11-2020 06:20:00 3.2 C 5.85 g/m*3 3.2 C 0 km/h
1230 26-11-2020 06:25:00 3.1 C 5.81 g/m*3 3.1 C 0 km/h
1231 26-11-2020 06:30:00 3.1 C 5.75 g/m*3 3.1 C 4.8 km/h
1232 26-11-2020 06:35:00 2.9 C 5.67 g/m*3 2.9 C 4.8 km/h
1233 26-11-2020 06:40:00 2.8 C 5.63 g/m*3 2.8 C 0 km/h
1234 26-11-2020 06:45:00 2.8 C 5.63 g/m*3 2.8 C 0 km/h
1235 26-11-2020 06:50:00 2.8 C 5.63 g/m*3 2.8 C 0 km/h
1236 26-11-2020 06:55:00 2.8 C 5.63 g/m*3 2.8 C 1.6 km/h
1237 26-11-2020 07:00:00 2.8 C 5.69 g/m*3 2.8 C 0 km/h
1238 26-11-2020 07:05:00 2.8 C 5.69 g/m*3 2.8 C 3.2 km/h
1239 26-11-2020 07:10:00 2.9 C 5.73 g/m*3 2.9 C 0 km/h
1240 26-11-2020 07:15:00 2.9 C 5.73 g/m*3 2.9 C 0 km/h
1241 26-11-2020 07:20:00 2.9 C 5.73 g/m*3 2.9 C 0 km/h
1242 26-11-2020 07:25:00 2.9 C 5.73 g/m*3 2.9 C 0 km/h
1243 26-11-2020 07:30:00 2.9 C 5.73 g/m*3 2.9 C 1.6 km/h
1244 26-11-2020 07:35:00 2.8 C 5.69 g/m*3 2.8 C 3.2 km/h
1245 26-11-2020 07:40:00 2.8 C 5.69 g/m*3 2.8 C 3.2 km/h
1246 26-11-2020 07:45:00 2.7 C 5.59 g/m*3 2.7 C 0 km/h
1247 26-11-2020 07:50:00 2.7 C 5.59 g/m*3 2.7 C 0 km/h
1248 26-11-2020 07:55:00 2.7 C 5.59 g/m*3 2.7 C 0 km/h
1249 26-11-2020 08:00:00 2.7 C 5.59 g/m*3 2.7 C 0 km/h
1250 26-11-2020 08:05:00 2.7 C 5.59 g/m*3 2.7 C 0 km/h
Sensor: Nr:Datum:Temp:Abs-Feuchte:Windchill:Wind:
Aussen-T/F 1251 26-11-2020 08:10:00 2.7 C 5.59 g/m*3 2.7 C 0 km/h
1252 26-11-2020 08:15:00 2.7 C 5.59 g/m*3 2.7 C 1.6 km/h
1253 26-11-2020 08:20:00 2.6 C 5.56 g/m*3 2.6 C 3.2 km/h
1254 26-11-2020 08:25:00 2.6 C 5.56 g/m*3 2.6 C 3.2 km/h
1255 26-11-2020 08:30:00 2.6 C 5.56 g/m*3 2.6 C 1.6 km/h
1256 26-11-2020 08:35:00 2.6 C 5.56 g/m*3 2.6 C 3.2 km/h
1257 26-11-2020 08:40:00 2.6 C 5.56 g/m*3 2.6 C 4.8 km/h
1258 26-11-2020 08:45:00 2.5 C 5.52 g/m*3 2.5 C 4.8 km/h
1259 26-11-2020 08:50:00 2.4 C 5.48 g/m*3 2.4 C 4.8 km/h
1260 26-11-2020 08:55:00 2.4 C 5.48 g/m*3 2.4 C 3.2 km/h
1261 26-11-2020 09:00:00 2.4 C 5.48 g/m*3 2.4 C 3.2 km/h
1262 26-11-2020 09:05:00 2.3 C 5.44 g/m*3 2.3 C 1.6 km/h
1263 26-11-2020 09:10:00 2.3 C 5.44 g/m*3 2.3 C 0 km/h
1264 26-11-2020 09:15:00 2.4 C 5.48 g/m*3 2.4 C 0 km/h
1265 26-11-2020 09:20:00 2.4 C 5.48 g/m*3 2.4 C 0 km/h
1266 26-11-2020 09:25:00 2.4 C 5.48 g/m*3 2.4 C 1.6 km/h
1267 26-11-2020 09:30:00 2.6 C 5.61 g/m*3 2.6 C 1.6 km/h
1268 26-11-2020 09:35:00 2.7 C 5.65 g/m*3 2.7 C 1.6 km/h
1269 26-11-2020 09:40:00 2.8 C 5.69 g/m*3 2.8 C 0 km/h
1270 26-11-2020 09:45:00 2.8 C 5.69 g/m*3 2.8 C 1.6 km/h
1271 26-11-2020 09:50:00 2.8 C 5.69 g/m*3 1.05 C 6.4 km/h
1272 26-11-2020 09:55:00 2.8 C 5.69 g/m*3 2.8 C 4.8 km/h
1273 26-11-2020 10:00:00 2.7 C 5.59 g/m*3 0.94 C 6.4 km/h
1274 26-11-2020 10:05:00 2.7 C 5.59 g/m*3 2.7 C 0 km/h
1275 26-11-2020 10:10:00 2.7 C 5.59 g/m*3 2.7 C 1.6 km/h
Sensor: Nr:Datum:Temp:Abs-Feuchte:Windchill:Wind:
Aussen-T/F 1276 26-11-2020 10:15:00 2.7 C 5.59 g/m*3 2.7 C 0 km/h
1277 26-11-2020 10:20:00 2.7 C 5.65 g/m*3 2.7 C 0 km/h
1278 26-11-2020 10:25:00 2.8 C 5.69 g/m*3 2.8 C 1.6 km/h
1279 26-11-2020 10:30:00 2.8 C 5.63 g/m*3 2.8 C 1.6 km/h
1280 26-11-2020 10:35:00 2.9 C 5.73 g/m*3 2.9 C 0 km/h
1281 26-11-2020 10:40:00 2.9 C 5.73 g/m*3 2.9 C 1.6 km/h
1282 26-11-2020 10:45:00 2.9 C 5.73 g/m*3 2.9 C 0 km/h
1283 26-11-2020 10:50:00 2.9 C 5.73 g/m*3 2.9 C 0 km/h
1284 26-11-2020 10:55:00 3.1 C 5.81 g/m*3 3.1 C 0 km/h
1285 26-11-2020 11:00:00 3.2 C 5.85 g/m*3 3.2 C 1.6 km/h
1286 26-11-2020 11:05:00 3.3 C 5.88 g/m*3 3.3 C 1.6 km/h
1287 26-11-2020 11:10:00 3.3 C 5.88 g/m*3 3.3 C 1.6 km/h
1288 26-11-2020 11:15:00 3.4 C 5.92 g/m*3 3.4 C 0 km/h
1289 26-11-2020 11:20:00 3.4 C 5.92 g/m*3 3.4 C 1.6 km/h
1290 26-11-2020 11:25:00 3.5 C 5.96 g/m*3 3.5 C 0 km/h
1291 26-11-2020 11:30:00 3.6 C 6 g/m*3 3.6 C 1.6 km/h
1292 26-11-2020 11:35:00 3.6 C 5.94 g/m*3 3.6 C 0 km/h
1293 26-11-2020 11:40:00 3.7 C 5.98 g/m*3 3.7 C 4.8 km/h
1294 26-11-2020 11:45:00 3.8 C 6.09 g/m*3 3.8 C 1.6 km/h
1295 26-11-2020 11:50:00 3.9 C 6.06 g/m*3 3.9 C 4.8 km/h
1296 26-11-2020 11:55:00 3.9 C 6.06 g/m*3 3.9 C 4.8 km/h
1297 26-11-2020 12:00:00 4 C 6.1 g/m*3 4 C 1.6 km/h
1298 26-11-2020 12:05:00 4 C 6.1 g/m*3 4 C 0 km/h
1299 26-11-2020 12:10:00 4.1 C 6.14 g/m*3 4.1 C 1.6 km/h
1300 26-11-2020 12:15:00 4.1 C 6.14 g/m*3 4.1 C 0 km/h
Sensor: Nr:Datum:Temp:Abs-Feuchte:Windchill:Wind:
Aussen-T/F 1301 26-11-2020 12:20:00 4.2 C 6.19 g/m*3 4.2 C 3.2 km/h
1302 26-11-2020 12:25:00 4.3 C 6.16 g/m*3 4.3 C 0 km/h
1303 26-11-2020 12:30:00 4.3 C 6.16 g/m*3 4.3 C 1.6 km/h
1304 26-11-2020 12:35:00 4.3 C 6.16 g/m*3 4.3 C 3.2 km/h
1305 26-11-2020 12:40:00 4.4 C 6.2 g/m*3 4.4 C 4.8 km/h
1306 26-11-2020 12:45:00 4.4 C 6.14 g/m*3 4.4 C 4.8 km/h
1307 26-11-2020 12:50:00 4.4 C 6.14 g/m*3 4.4 C 3.2 km/h
1308 26-11-2020 12:55:00 4.5 C 6.18 g/m*3 4.5 C 1.6 km/h
1309 26-11-2020 13:00:00 4.6 C 6.22 g/m*3 3.13 C 6.4 km/h
1310 26-11-2020 13:05:00 4.6 C 6.22 g/m*3 4.6 C 3.2 km/h
1311 26-11-2020 13:10:00 4.6 C 6.22 g/m*3 4.6 C 3.2 km/h
1312 26-11-2020 13:15:00 4.7 C 6.26 g/m*3 4.7 C 3.2 km/h
1313 26-11-2020 13:20:00 4.7 C 6.19 g/m*3 4.7 C 0 km/h
1314 26-11-2020 13:25:00 4.7 C 6.19 g/m*3 4.7 C 1.6 km/h
1315 26-11-2020 13:30:00 4.8 C 6.24 g/m*3 4.8 C 1.6 km/h
1316 26-11-2020 13:35:00 4.8 C 6.24 g/m*3 4.8 C 3.2 km/h
1317 26-11-2020 13:40:00 4.8 C 6.24 g/m*3 4.8 C 4.8 km/h
1318 26-11-2020 13:45:00 4.8 C 6.24 g/m*3 4.8 C 4.8 km/h
1319 26-11-2020 13:50:00 4.9 C 6.28 g/m*3 4.9 C 3.2 km/h
1320 26-11-2020 13:55:00 4.9 C 6.21 g/m*3 4.9 C 3.2 km/h
1321 26-11-2020 14:00:00 4.9 C 6.21 g/m*3 4.9 C 4.8 km/h
1322 26-11-2020 14:05:00 4.9 C 6.21 g/m*3 4.9 C 4.8 km/h
1323 26-11-2020 14:10:00 4.9 C 6.21 g/m*3 4.9 C 1.6 km/h
1324 26-11-2020 14:15:00 5 C 6.25 g/m*3 5 C 0 km/h
1325 26-11-2020 14:20:00 5.1 C 6.29 g/m*3 5.1 C 0 km/h
Sensor: Nr:Datum:Temp:Abs-Feuchte:Windchill:Wind:
Aussen-T/F 1326 26-11-2020 14:25:00 5.1 C 6.29 g/m*3 3.71 C 6.4 km/h
1327 26-11-2020 14:30:00 5.2 C 6.33 g/m*3 3.34 C 8.1 km/h
1328 26-11-2020 14:35:00 5.2 C 6.33 g/m*3 3.34 C 8.1 km/h
1329 26-11-2020 14:40:00 5.2 C 6.33 g/m*3 5.2 C 1.6 km/h
1330 26-11-2020 14:45:00 5.2 C 6.33 g/m*3 5.2 C 1.6 km/h
1331 26-11-2020 14:50:00 5.2 C 6.27 g/m*3 5.2 C 4.8 km/h
1332 26-11-2020 14:55:00 5.2 C 6.27 g/m*3 5.2 C 4.8 km/h
1333 26-11-2020 15:00:00 5.2 C 6.27 g/m*3 5.2 C 3.2 km/h
1334 26-11-2020 15:05:00 5.3 C 6.31 g/m*3 3.94 C 6.4 km/h
1335 26-11-2020 15:10:00 5.2 C 6.27 g/m*3 5.2 C 3.2 km/h
1336 26-11-2020 15:15:00 5.2 C 6.27 g/m*3 5.2 C 0 km/h
1337 26-11-2020 15:20:00 5.1 C 6.22 g/m*3 5.1 C 1.6 km/h
1338 26-11-2020 15:25:00 5.1 C 6.22 g/m*3 5.1 C 1.6 km/h
1339 26-11-2020 15:30:00 5.1 C 6.22 g/m*3 5.1 C 1.6 km/h
1340 26-11-2020 15:35:00 5.1 C 6.22 g/m*3 5.1 C 1.6 km/h
1341 26-11-2020 15:40:00 5.1 C 6.22 g/m*3 5.1 C 1.6 km/h
1342 26-11-2020 15:45:00 5.1 C 6.22 g/m*3 5.1 C 0 km/h
1343 26-11-2020 15:50:00 5.1 C 6.29 g/m*3 5.1 C 4.8 km/h
1344 26-11-2020 15:55:00 5 C 6.25 g/m*3 5 C 3.2 km/h
1345 26-11-2020 16:00:00 5 C 6.25 g/m*3 5 C 1.6 km/h
1346 26-11-2020 16:05:00 5 C 6.18 g/m*3 5 C 0 km/h
1347 26-11-2020 16:10:00 4.9 C 6.21 g/m*3 4.9 C 0 km/h
1348 26-11-2020 16:15:00 4.9 C 6.14 g/m*3 2.99 C 8.1 km/h
1349 26-11-2020 16:20:00 4.9 C 6.14 g/m*3 4.9 C 0 km/h
1350 26-11-2020 16:25:00 4.8 C 6.17 g/m*3 4.8 C 0 km/h
Sensor: Nr:Datum:Temp:Abs-Feuchte:Windchill:Wind:
Aussen-T/F 1351 26-11-2020 16:30:00 4.8 C 6.17 g/m*3 4.8 C 0 km/h
1352 26-11-2020 16:35:00 4.8 C 6.17 g/m*3 4.8 C 4.8 km/h
1353 26-11-2020 16:40:00 4.7 C 6.13 g/m*3 4.7 C 0 km/h
1354 26-11-2020 16:45:00 4.7 C 6.13 g/m*3 4.7 C 0 km/h
1355 26-11-2020 16:50:00 4.7 C 6.13 g/m*3 4.7 C 1.6 km/h
1356 26-11-2020 16:55:00 4.6 C 6.09 g/m*3 4.6 C 3.2 km/h
1357 26-11-2020 17:00:00 4.6 C 6.09 g/m*3 4.6 C 3.2 km/h
1358 26-11-2020 17:05:00 4.5 C 6.05 g/m*3 4.5 C 1.6 km/h
1359 26-11-2020 17:10:00 4.4 C 6.01 g/m*3 4.4 C 0 km/h
1360 26-11-2020 17:15:00 4.4 C 6.01 g/m*3 4.4 C 0 km/h
1361 26-11-2020 17:20:00 4.4 C 6.01 g/m*3 4.4 C 1.6 km/h
1362 26-11-2020 17:25:00 4.4 C 6.01 g/m*3 4.4 C 3.2 km/h
1363 26-11-2020 17:30:00 4.4 C 6.07 g/m*3 4.4 C 1.6 km/h
1364 26-11-2020 17:35:00 4.3 C 6.03 g/m*3 4.3 C 3.2 km/h
1365 26-11-2020 17:40:00 4.3 C 6.03 g/m*3 4.3 C 1.6 km/h
1366 26-11-2020 17:45:00 4.3 C 6.03 g/m*3 4.3 C 4.8 km/h
1367 26-11-2020 17:50:00 4.3 C 6.03 g/m*3 4.3 C 1.6 km/h
1368 26-11-2020 17:55:00 4.3 C 6.03 g/m*3 4.3 C 0 km/h
1369 26-11-2020 18:00:00 4.2 C 5.99 g/m*3 4.2 C 0 km/h
1370 26-11-2020 18:05:00 4.2 C 5.99 g/m*3 4.2 C 1.6 km/h
1371 26-11-2020 18:10:00 4.2 C 5.99 g/m*3 4.2 C 4.8 km/h
1372 26-11-2020 18:15:00 4.2 C 5.99 g/m*3 4.2 C 4.8 km/h
1373 26-11-2020 18:20:00 4.2 C 5.99 g/m*3 4.2 C 0 km/h
1374 26-11-2020 18:25:00 4.2 C 5.99 g/m*3 4.2 C 0 km/h
1375 26-11-2020 18:30:00 4.2 C 5.99 g/m*3 4.2 C 0 km/h
Sensor: Nr:Datum:Temp:Abs-Feuchte:Windchill:Wind:
Aussen-T/F 1376 26-11-2020 18:35:00 4.2 C 5.99 g/m*3 4.2 C 0 km/h
1377 26-11-2020 18:40:00 4.1 C 5.95 g/m*3 4.1 C 1.6 km/h
1378 26-11-2020 18:45:00 4.1 C 5.95 g/m*3 4.1 C 0 km/h
1379 26-11-2020 18:50:00 4.1 C 5.95 g/m*3 4.1 C 1.6 km/h
1380 26-11-2020 18:55:00 4.1 C 5.95 g/m*3 4.1 C 4.8 km/h
1381 26-11-2020 19:00:00 4.1 C 5.95 g/m*3 4.1 C 0 km/h
1382 26-11-2020 19:05:00 4.1 C 5.95 g/m*3 4.1 C 0 km/h
1383 26-11-2020 19:10:00 4.1 C 5.95 g/m*3 4.1 C 0 km/h
1384 26-11-2020 19:15:00 4.1 C 5.95 g/m*3 4.1 C 0 km/h
1385 26-11-2020 19:20:00 4.1 C 5.95 g/m*3 4.1 C 0 km/h
1386 26-11-2020 19:25:00 4.1 C 5.95 g/m*3 4.1 C 0 km/h
1387 26-11-2020 19:30:00 4.1 C 5.95 g/m*3 4.1 C 0 km/h
1388 26-11-2020 19:35:00 4.1 C 5.95 g/m*3 4.1 C 0 km/h
1389 26-11-2020 19:40:00 4.1 C 5.95 g/m*3 4.1 C 0 km/h
1390 26-11-2020 19:45:00 4.1 C 5.95 g/m*3 4.1 C 0 km/h
1391 26-11-2020 19:50:00 4.1 C 5.95 g/m*3 4.1 C 1.6 km/h
1392 26-11-2020 19:55:00 4.1 C 5.95 g/m*3 4.1 C 0 km/h
1393 26-11-2020 20:00:00 4.1 C 5.95 g/m*3 4.1 C 0 km/h
1394 26-11-2020 20:05:00 4 C 5.91 g/m*3 4 C 0 km/h
1395 26-11-2020 20:10:00 4 C 5.91 g/m*3 4 C 0 km/h
1396 26-11-2020 20:15:00 4.1 C 5.95 g/m*3 4.1 C 3.2 km/h
1397 26-11-2020 20:20:00 4.1 C 5.95 g/m*3 4.1 C 0 km/h
1398 26-11-2020 20:25:00 4 C 5.91 g/m*3 4 C 4.8 km/h
1399 26-11-2020 20:30:00 3.9 C 5.87 g/m*3 3.9 C 3.2 km/h
1400 26-11-2020 20:35:00 3.9 C 5.87 g/m*3 3.9 C 0 km/h
Sensor: Nr:Datum:Temp:Abs-Feuchte:Windchill:Wind:
Aussen-T/F 1401 26-11-2020 20:40:00 3.8 C 5.77 g/m*3 3.8 C 0 km/h
1402 26-11-2020 20:45:00 3.6 C 5.69 g/m*3 3.6 C 0 km/h
1403 26-11-2020 20:50:00 3.4 C 5.62 g/m*3 3.4 C 0 km/h
1404 26-11-2020 20:55:00 3.3 C 5.58 g/m*3 3.3 C 0 km/h
1405 26-11-2020 21:00:00 3.2 C 5.54 g/m*3 3.2 C 0 km/h
1406 26-11-2020 21:05:00 3.1 C 5.51 g/m*3 3.1 C 0 km/h
1407 26-11-2020 21:10:00 3.1 C 5.57 g/m*3 3.1 C 0 km/h
1408 26-11-2020 21:15:00 3 C 5.53 g/m*3 3 C 3.2 km/h
1409 26-11-2020 21:20:00 2.9 C 5.49 g/m*3 2.9 C 3.2 km/h
1410 26-11-2020 21:25:00 2.8 C 5.46 g/m*3 2.8 C 0 km/h
1411 26-11-2020 21:30:00 2.8 C 5.46 g/m*3 2.8 C 3.2 km/h
1412 26-11-2020 21:35:00 2.7 C 5.42 g/m*3 2.7 C 3.2 km/h
1413 26-11-2020 21:40:00 2.6 C 5.38 g/m*3 2.6 C 1.6 km/h
1414 26-11-2020 21:45:00 2.5 C 5.35 g/m*3 2.5 C 0 km/h
1415 26-11-2020 21:50:00 2.4 C 5.31 g/m*3 2.4 C 0 km/h
1416 26-11-2020 21:55:00 2.5 C 5.4 g/m*3 2.5 C 0 km/h
1417 26-11-2020 22:00:00 2.6 C 5.44 g/m*3 2.6 C 4.8 km/h
1418 26-11-2020 22:05:00 2.8 C 5.51 g/m*3 2.8 C 1.6 km/h
1419 26-11-2020 22:10:00 2.8 C 5.51 g/m*3 2.8 C 0 km/h
1420 26-11-2020 22:15:00 2.8 C 5.51 g/m*3 2.8 C 0 km/h
1421 26-11-2020 22:20:00 2.8 C 5.51 g/m*3 2.8 C 0 km/h
1422 26-11-2020 22:25:00 2.9 C 5.55 g/m*3 2.9 C 0 km/h
1423 26-11-2020 22:30:00 2.9 C 5.55 g/m*3 2.9 C 0 km/h
1424 26-11-2020 22:35:00 2.9 C 5.55 g/m*3 2.9 C 0 km/h
1425 26-11-2020 22:40:00 2.9 C 5.55 g/m*3 2.9 C 0 km/h
Sensor: Nr:Datum:Temp:Abs-Feuchte:Windchill:Wind:
Aussen-T/F 1426 26-11-2020 22:45:00 3 C 5.59 g/m*3 3 C 0 km/h
1427 26-11-2020 22:50:00 3 C 5.59 g/m*3 3 C 0 km/h
1428 26-11-2020 22:55:00 3 C 5.59 g/m*3 3 C 0 km/h
1429 26-11-2020 23:00:00 3 C 5.59 g/m*3 3 C 0 km/h
1430 26-11-2020 23:05:00 2.9 C 5.55 g/m*3 2.9 C 0 km/h
1431 26-11-2020 23:10:00 2.8 C 5.51 g/m*3 2.8 C 0 km/h
1432 26-11-2020 23:15:00 2.8 C 5.51 g/m*3 2.8 C 0 km/h
1433 26-11-2020 23:20:00 2.8 C 5.51 g/m*3 2.8 C 0 km/h
1434 26-11-2020 23:25:00 2.7 C 5.48 g/m*3 2.7 C 0 km/h
1435 26-11-2020 23:30:00 2.6 C 5.44 g/m*3 2.6 C 0 km/h
1436 26-11-2020 23:35:00 2.5 C 5.4 g/m*3 2.5 C 0 km/h
1437 26-11-2020 23:40:00 2.4 C 5.37 g/m*3 2.4 C 0 km/h
1438 26-11-2020 23:45:00 2.3 C 5.33 g/m*3 2.3 C 0 km/h
1439 26-11-2020 23:50:00 2.2 C 5.29 g/m*3 2.2 C 0 km/h
1440 26-11-2020 23:55:00 2.1 C 5.26 g/m*3 2.1 C 0 km/h

Legende:
   Min
   Max


Maximal/Minimal-Werte vom 23.02.2003 - 29.09.2020

Sensor Min Max Avg
Temp
(Aussen-T/F)
-16.4 °C
20-12-2009  01:30:01
40.4 °C
25-07-2019  16:20:00
11.32 °C

Die Daten stammen von einer Davis Vantage Pro 2 Wetter-Station und werden unter Linux mit der Software wview2wettercgi und aufbereitet. Alle Angaben erfolgen ohne Gewähr für ihre Vollständigkeit oder Richtigkeit.
Kontakt: Rainer Krienke krienke@uni-koblenz.de . Meine Webseiten an der Uni Koblenz oder privat.
Version: $Revision: 0.78 $